Observation data for Colorado City on 11/21/2020      Previous  Date       Current Mesonet Observations  Soil Data  Daily Summary Page  Observations in Plain Language
KCO2 210600Z 09003KT 13/11 A3028 RMK A01 T01290111  RH  089%=      5-min Rain = 0
KCO2 210601Z 08002KT 13/11 A3028 RMK A01 T01280109  RH  088%=      5-min Rain = 0
KCO2 210602Z 07002KT 13/11 A3028 RMK A01 T01270107  RH  088%=      5-min Rain = 0
KCO2 210603Z 06002KT 13/11 A3028 RMK A01 T01260107  RH  089%=      5-min Rain = 0
KCO2 210604Z 06003KT 13/11 A3028 RMK A01 T01250108  RH  089%=      5-min Rain = 0
KCO2 210605Z 04003KT 13/11 A3028 RMK A01 T01250108  RH  089%=      5-min Rain = 0
KCO2 210606Z 02005KT 12/11 A3028 RMK A01 T01240108  RH  090%=      5-min Rain = 0
KCO2 210607Z 01006KT 12/11 A3028 RMK A01 T01240108  RH  090%=      5-min Rain = 0
KCO2 210608Z 01007KT 12/11 A3028 RMK A01 T01240108  RH  090%=      5-min Rain = 0
KCO2 210609Z 01007KT 12/11 A3028 RMK A01 T01230108  RH  090%=      5-min Rain = 0
KCO2 210610Z 02008KT 12/11 A3028 RMK A01 T01240109  RH  091%=      5-min Rain = 0
KCO2 210611Z 01008KT 12/11 A3028 RMK A01 T01240110  RH  091%=      5-min Rain = 0
KCO2 210612Z 01008KT 13/11 A3028 RMK A01 T01260112  RH  091%=      5-min Rain = 0
KCO2 210613Z 01008KT 13/11 A3028 RMK A01 T01260112  RH  091%=      5-min Rain = 0
KCO2 210614Z 01008KT 13/11 A3028 RMK A01 T01270113  RH  091%=      5-min Rain = 0
KCO2 210615Z 02008KT 13/11 A3028 RMK A01 T01280113  RH  091%=      5-min Rain = 0
KCO2 210616Z 02008KT 13/11 A3028 RMK A01 T01290114  RH  091%=      5-min Rain = 0
KCO2 210617Z 02009KT 13/11 A3028 RMK A01 T01300114  RH  090%=      5-min Rain = 0
KCO2 210618Z 01009KT 13/11 A3028 RMK A01 T01300114  RH  090%=      5-min Rain = 0
KCO2 210619Z 01008KT 13/11 A3028 RMK A01 T01310114  RH  089%=      5-min Rain = 0
KCO2 210620Z 01009KT 13/11 A3028 RMK A01 T01310114  RH  089%=      5-min Rain = 0
KCO2 210621Z 01008KT 13/11 A3028 RMK A01 T01320114  RH  089%=      5-min Rain = 0
KCO2 210622Z 02008KT 13/11 A3028 RMK A01 T01320114  RH  089%=      5-min Rain = 0
KCO2 210623Z 02008KT 13/11 A3028 RMK A01 T01320114  RH  089%=      5-min Rain = 0
KCO2 210624Z 02008KT 13/11 A3028 RMK A01 T01320114  RH  089%=      5-min Rain = 0
KCO2 210625Z 03007KT 13/11 A3029 RMK A01 T01320113  RH  089%=      5-min Rain = 0
KCO2 210626Z 03008KT 13/11 A3029 RMK A01 T01320113  RH  089%=      5-min Rain = 0
KCO2 210627Z 03008KT 13/11 A3029 RMK A01 T01320114  RH  089%=      5-min Rain = 0
KCO2 210628Z 03007KT 13/11 A3029 RMK A01 T01320114  RH  089%=      5-min Rain = 0
KCO2 210629Z 03007KT 13/11 A3029 RMK A01 T01310113  RH  089%=      5-min Rain = 0
KCO2 210630Z 03007KT 13/11 A3029 RMK A01 T01320114  RH  089%=      5-min Rain = 0
KCO2 210631Z 03007KT 13/11 A3029 RMK A01 T01320114  RH  089%=      5-min Rain = 0
KCO2 210632Z 03007KT 13/11 A3029 RMK A01 T01330114  RH  088%=      5-min Rain = 0
KCO2 210633Z 04006KT 13/11 A3029 RMK A01 T01330114  RH  088%=      5-min Rain = 0
KCO2 210634Z 04007KT 13/11 A3029 RMK A01 T01340114  RH  088%=      5-min Rain = 0
KCO2 210635Z 04007KT 13/11 A3029 RMK A01 T01340114  RH  088%=      5-min Rain = 0
KCO2 210636Z 04007KT 13/11 A3028 RMK A01 T01340114  RH  088%=      5-min Rain = 0
KCO2 210637Z 04006KT 13/11 A3028 RMK A01 T01340114  RH  088%=      5-min Rain = 0
KCO2 210638Z 04006KT 13/11 A3028 RMK A01 T01340114  RH  087%=      5-min Rain = 0
KCO2 210639Z 04006KT 14/11 A3028 RMK A01 T01350114  RH  087%=      5-min Rain = 0
KCO2 210640Z 03005KT 14/11 A3028 RMK A01 T01350114  RH  087%=      5-min Rain = 0
KCO2 210641Z 03005KT 14/11 A3029 RMK A01 T01350114  RH  087%=      5-min Rain = 0
KCO2 210642Z 04006KT 13/11 A3029 RMK A01 T01340113  RH  087%=      5-min Rain = 0
KCO2 210643Z 04007KT 13/11 A3029 RMK A01 T01330112  RH  087%=      5-min Rain = 0
KCO2 210644Z 04007KT 13/11 A3029 RMK A01 T01320112  RH  088%=      5-min Rain = 0
KCO2 210645Z 04006KT 13/11 A3029 RMK A01 T01310112  RH  088%=      5-min Rain = 0
KCO2 210646Z 04006KT 13/11 A3029 RMK A01 T01310112  RH  088%=      5-min Rain = 0
KCO2 210647Z 04006KT 13/11 A3029 RMK A01 T01310112  RH  088%=      5-min Rain = 0
KCO2 210648Z 04006KT 13/11 A3029 RMK A01 T01310113  RH  088%=      5-min Rain = 0
KCO2 210649Z 04006KT 13/11 A3029 RMK A01 T01310113  RH  088%=      5-min Rain = 0
KCO2 210650Z 04005KT 13/11 A3029 RMK A01 T01310112  RH  088%=      5-min Rain = 0
KCO2 210651Z 03005KT 13/11 A3029 RMK A01 T01300112  RH  088%=      5-min Rain = 0
KCO2 210652Z 03005KT 13/11 A3028 RMK A01 T01300111  RH  088%=      5-min Rain = 0
KCO2 210653Z 03006KT 13/11 A3028 RMK A01 T01290110  RH  088%=      5-min Rain = 0
KCO2 210654Z 04006KT 13/11 A3028 RMK A01 T01280110  RH  089%=      5-min Rain = 0
KCO2 210655Z 04006KT 13/11 A3028 RMK A01 T01280110  RH  089%=      5-min Rain = 0
KCO2 210656Z 04006KT 13/11 A3028 RMK A01 T01270110  RH  089%=      5-min Rain = 0
KCO2 210657Z 04006KT 13/11 A3028 RMK A01 T01270111  RH  090%=      5-min Rain = 0
KCO2 210658Z 04006KT 13/11 A3028 RMK A01 T01280111  RH  090%=      5-min Rain = 0
KCO2 210659Z 04006KT 13/11 A3028 RMK A01 T01270111  RH  090%=      5-min Rain = 0
KCO2 210700Z 04006KT 13/11 A3028 RMK A01 T01280111  RH  090%=      5-min Rain = 0
KCO2 210701Z 04006KT 13/11 A3028 RMK A01 T01270111  RH  090%=      5-min Rain = 0
KCO2 210702Z 04005KT 13/11 A3028 RMK A01 T01270111  RH  090%=      5-min Rain = 0
KCO2 210703Z 04005KT 13/11 A3028 RMK A01 T01270111  RH  090%=      5-min Rain = 0
KCO2 210704Z 04005KT 13/11 A3028 RMK A01 T01270110  RH  090%=      5-min Rain = 0
KCO2 210705Z 04006KT 13/11 A3028 RMK A01 T01260110  RH  090%=      5-min Rain = 0
KCO2 210706Z 04005KT 13/11 A3028 RMK A01 T01260110  RH  090%=      5-min Rain = 0
KCO2 210707Z 04005KT 13/11 A3028 RMK A01 T01260111  RH  090%=      5-min Rain = 0
KCO2 210708Z 05006KT 13/11 A3028 RMK A01 T01270111  RH  090%=      5-min Rain = 0
KCO2 210709Z 05006KT 13/11 A3028 RMK A01 T01270110  RH  090%=      5-min Rain = 0
KCO2 210710Z 05007KT 13/11 A3028 RMK A01 T01270110  RH  090%=      5-min Rain = 0
KCO2 210711Z 05007KT 13/11 A3028 RMK A01 T01270110  RH  089%=      5-min Rain = 0
KCO2 210712Z 06007KT 13/11 A3028 RMK A01 T01270110  RH  089%=      5-min Rain = 0
KCO2 210713Z 06006KT 13/11 A3028 RMK A01 T01280110  RH  089%=      5-min Rain = 0
KCO2 210714Z 07006KT 13/11 A3028 RMK A01 T01280110  RH  089%=      5-min Rain = 0
KCO2 210715Z 07005KT 13/11 A3028 RMK A01 T01280110  RH  089%=      5-min Rain = 0
KCO2 210716Z 07005KT 13/11 A3028 RMK A01 T01270110  RH  089%=      5-min Rain = 0
KCO2 210717Z 07005KT 13/11 A3028 RMK A01 T01270110  RH  089%=      5-min Rain = 0
KCO2 210718Z 07006KT 13/11 A3028 RMK A01 T01270110  RH  089%=      5-min Rain = 0
KCO2 210719Z 07006KT 13/11 A3028 RMK A01 T01260109  RH  089%=      5-min Rain = 0
KCO2 210720Z 07007KT 13/11 A3028 RMK A01 T01260109  RH  089%=      5-min Rain = 0
KCO2 210721Z 07007KT 13/11 A3028 RMK A01 T01250109  RH  090%=      5-min Rain = 0
KCO2 210722Z 08007KT 13/11 A3028 RMK A01 T01250109  RH  090%=      5-min Rain = 0
KCO2 210723Z 08006KT 13/11 A3028 RMK A01 T01250109  RH  090%=      5-min Rain = 0
KCO2 210724Z 08006KT 13/11 A3028 RMK A01 T01250109  RH  090%=      5-min Rain = 0
KCO2 210725Z 08007KT 13/11 A3028 RMK A01 T01250109  RH  090%=      5-min Rain = 0
KCO2 210726Z 08007KT 13/11 A3028 RMK A01 T01250109  RH  090%=      5-min Rain = 0
KCO2 210727Z 07007KT 13/11 A3028 RMK A01 T01250108  RH  090%=      5-min Rain = 0
KCO2 210728Z 08007KT 12/11 A3028 RMK A01 T01240107  RH  089%=      5-min Rain = 0
KCO2 210729Z 09006KT 12/11 A3028 RMK A01 T01240106  RH  089%=      5-min Rain = 0
KCO2 210730Z 08006KT 12/11 A3028 RMK A01 T01230106  RH  089%=      5-min Rain = 0
KCO2 210731Z 08006KT 12/11 A3028 RMK A01 T01220106  RH  090%=      5-min Rain = 0
KCO2 210732Z 08006KT 12/11 A3028 RMK A01 T01220106  RH  090%=      5-min Rain = 0
KCO2 210733Z 08006KT 12/11 A3028 RMK A01 T01220106  RH  090%=      5-min Rain = 0
KCO2 210734Z 08006KT 12/11 A3027 RMK A01 T01210106  RH  090%=      5-min Rain = 0
KCO2 210735Z 07007KT 12/11 A3027 RMK A01 T01220106  RH  090%=      5-min Rain = 0
KCO2 210736Z 07007KT 12/11 A3027 RMK A01 T01210106  RH  090%=      5-min Rain = 0
KCO2 210737Z 07007KT 12/11 A3027 RMK A01 T01210105  RH  090%=      5-min Rain = 0
KCO2 210738Z 07006KT 12/11 A3027 RMK A01 T01220105  RH  090%=      5-min Rain = 0
KCO2 210739Z 07006KT 12/11 A3027 RMK A01 T01210105  RH  090%=      5-min Rain = 0
KCO2 210740Z 07005KT 12/10 A3027 RMK A01 T01210104  RH  090%=      5-min Rain = 0
KCO2 210741Z 06006KT 12/11 A3027 RMK A01 T01200105  RH  090%=      5-min Rain = 0
KCO2 210742Z 06006KT 12/10 A3027 RMK A01 T01200104  RH  090%=      5-min Rain = 0
KCO2 210743Z 06006KT 12/10 A3027 RMK A01 T01190104  RH  090%=      5-min Rain = 0
KCO2 210744Z 07005KT 12/10 A3027 RMK A01 T01190104  RH  090%=      5-min Rain = 0
KCO2 210745Z 07005KT 12/10 A3027 RMK A01 T01190104  RH  090%=      5-min Rain = 0
KCO2 210746Z 08004KT 12/10 A3027 RMK A01 T01190104  RH  090%=      5-min Rain = 0
KCO2 210747Z 07004KT 12/10 A3027 RMK A01 T01190103  RH  090%=      5-min Rain = 0
KCO2 210748Z 07003KT 12/10 A3027 RMK A01 T01180102  RH  090%=      5-min Rain = 0
KCO2 210749Z 03002KT 12/10 A3027 RMK A01 T01170101  RH  090%=      5-min Rain = 0
KCO2 210750Z 34002KT 12/10 A3027 RMK A01 T01150099  RH  090%=      5-min Rain = 0
KCO2 210751Z 31002KT 11/10 A3027 RMK A01 T01130097  RH  090%=      5-min Rain = 0
KCO2 210752Z 33001KT 11/10 A3027 RMK A01 T01110096  RH  090%=      5-min Rain = 0
KCO2 210753Z 35002KT 11/10 A3027 RMK A01 T01110097  RH  092%=      5-min Rain = 0
KCO2 210754Z 04002KT 11/10 A3027 RMK A01 T01110099  RH  092%=      5-min Rain = 0
KCO2 210755Z 05003KT 11/10 A3027 RMK A01 T01120100  RH  093%=      5-min Rain = 0
KCO2 210756Z 05003KT 11/10 A3027 RMK A01 T01130102  RH  093%=      5-min Rain = 0
KCO2 210757Z 06003KT 11/10 A3027 RMK A01 T01130101  RH  092%=      5-min Rain = 0
KCO2 210758Z 07004KT 11/10 A3027 RMK A01 T01130101  RH  092%=      5-min Rain = 0
KCO2 210759Z 07004KT 11/10 A3027 RMK A01 T01140101  RH  092%=      5-min Rain = 0
KCO2 210800Z 07004KT 11/10 A3027 RMK A01 T01140101  RH  091%=      5-min Rain = 0
KCO2 210801Z 07004KT 11/10 A3027 RMK A01 T01140100  RH  091%=      5-min Rain = 0
KCO2 210802Z 06003KT 12/10 A3027 RMK A01 T01150101  RH  091%=      5-min Rain = 0
KCO2 210803Z 06003KT 12/10 A3027 RMK A01 T01150100  RH  091%=      5-min Rain = 0
KCO2 210804Z 05002KT 12/10 A3027 RMK A01 T01150100  RH  091%=      5-min Rain = 0
KCO2 210805Z 04002KT 12/10 A3027 RMK A01 T01150099  RH  090%=      5-min Rain = 0
KCO2 210806Z 00002KT 11/10 A3027 RMK A01 T01140098  RH  090%=      5-min Rain = 0
KCO2 210807Z 35002KT 11/10 A3027 RMK A01 T01130098  RH  090%=      5-min Rain = 0
KCO2 210808Z 01002KT 11/10 A3027 RMK A01 T01120096  RH  090%=      5-min Rain = 0
KCO2 210809Z 01002KT 11/10 A3027 RMK A01 T01110095  RH  090%=      5-min Rain = 0
KCO2 210810Z 02002KT 11/10 A3027 RMK A01 T01110096  RH  091%=      5-min Rain = 0
KCO2 210811Z 03002KT 11/10 A3027 RMK A01 T01100095  RH  091%=      5-min Rain = 0
KCO2 210812Z 03003KT 11/10 A3027 RMK A01 T01090095  RH  091%=      5-min Rain = 0
KCO2 210813Z 04003KT 11/10 A3027 RMK A01 T01090095  RH  091%=      5-min Rain = 0
KCO2 210814Z 03003KT 11/09 A3027 RMK A01 T01080093  RH  091%=      5-min Rain = 0
KCO2 210815Z 03002KT 11/09 A3027 RMK A01 T01080094  RH  091%=      5-min Rain = 0
KCO2 210816Z 01002KT 11/09 A3027 RMK A01 T01080094  RH  091%=      5-min Rain = 0
KCO2 210817Z 36001KT 11/09 A3027 RMK A01 T01080094  RH  091%=      5-min Rain = 0
KCO2 210818Z 32001KT 11/09 A3027 RMK A01 T01070093  RH  091%=      5-min Rain = 0
KCO2 210819Z 32001KT 11/09 A3027 RMK A01 T01060094  RH  092%=      5-min Rain = 0
KCO2 210820Z 00002KT 11/09 A3027 RMK A01 T01060094  RH  092%=      5-min Rain = 0
KCO2 210821Z 02003KT 11/10 A3027 RMK A01 T01060095  RH  093%=      5-min Rain = 0
KCO2 210822Z 02002KT 11/10 A3027 RMK A01 T01070096  RH  093%=      5-min Rain = 0
KCO2 210823Z 02002KT 11/09 A3027 RMK A01 T01060094  RH  092%=      5-min Rain = 0
KCO2 210824Z 34002KT 10/09 A3027 RMK A01 T01040092  RH  092%=      5-min Rain = 0
KCO2 210825Z 32003KT 10/09 A3028 RMK A01 T01030091  RH  092%=      5-min Rain = 0
KCO2 210826Z 34003KT 10/09 A3028 RMK A01 T01030091  RH  093%=      5-min Rain = 0
KCO2 210827Z 35003KT 10/09 A3028 RMK A01 T01030092  RH  093%=      5-min Rain = 0
KCO2 210828Z 01003KT 10/09 A3027 RMK A01 T01020092  RH  093%=      5-min Rain = 0
KCO2 210829Z 01003KT 10/09 A3027 RMK A01 T01020092  RH  094%=      5-min Rain = 0
KCO2 210830Z 03003KT 10/09 A3027 RMK A01 T01020092  RH  093%=      5-min Rain = 0
KCO2 210831Z 03003KT 10/09 A3027 RMK A01 T01030093  RH  094%=      5-min Rain = 0
KCO2 210832Z 03003KT 10/09 A3027 RMK A01 T01040094  RH  093%=      5-min Rain = 0
KCO2 210833Z 04004KT 10/09 A3027 RMK A01 T01040094  RH  093%=      5-min Rain = 0
KCO2 210834Z 03004KT 11/09 A3028 RMK A01 T01050093  RH  093%=      5-min Rain = 0
KCO2 210835Z 02003KT 11/09 A3028 RMK A01 T01050093  RH  092%=      5-min Rain = 0
KCO2 210836Z 01003KT 11/09 A3028 RMK A01 T01050092  RH  092%=      5-min Rain = 0
KCO2 210837Z 01004KT 11/09 A3028 RMK A01 T01050091  RH  091%=      5-min Rain = 0
KCO2 210838Z 00004KT 10/09 A3028 RMK A01 T01040090  RH  091%=      5-min Rain = 0
KCO2 210839Z 01004KT 10/09 A3028 RMK A01 T01030089  RH  091%=      5-min Rain = 0
KCO2 210840Z 01004KT 10/09 A3028 RMK A01 T01030089  RH  092%=      5-min Rain = 0
KCO2 210841Z 02005KT 10/09 A3028 RMK A01 T01020089  RH  092%=      5-min Rain = 0
KCO2 210842Z 02005KT 10/09 A3028 RMK A01 T01020090  RH  092%=      5-min Rain = 0
KCO2 210843Z 02005KT 10/09 A3028 RMK A01 T01020090  RH  092%=      5-min Rain = 0
KCO2 210844Z 02005KT 10/09 A3028 RMK A01 T01020090  RH  092%=      5-min Rain = 0
KCO2 210845Z 02006KT 10/09 A3028 RMK A01 T01020090  RH  092%=      5-min Rain = 0
KCO2 210846Z 02005KT 10/09 A3028 RMK A01 T01020090  RH  092%=      5-min Rain = 0
KCO2 210847Z 02005KT 10/09 A3028 RMK A01 T01020089  RH  092%=      5-min Rain = 0
KCO2 210848Z 01005KT 10/09 A3028 RMK A01 T01020089  RH  092%=      5-min Rain = 0
KCO2 210849Z 01005KT 10/09 A3028 RMK A01 T01020089  RH  092%=      5-min Rain = 0
KCO2 210850Z 02006KT 10/09 A3028 RMK A01 T01020089  RH  092%=      5-min Rain = 0
KCO2 210851Z 02006KT 10/09 A3028 RMK A01 T01010089  RH  092%=      5-min Rain = 0
KCO2 210852Z 02006KT 10/09 A3028 RMK A01 T01020091  RH  093%=      5-min Rain = 0
KCO2 210853Z 02006KT 10/09 A3028 RMK A01 T01030091  RH  093%=      5-min Rain = 0
KCO2 210854Z 02006KT 10/09 A3028 RMK A01 T01030091  RH  092%=      5-min Rain = 0
KCO2 210855Z 02007KT 10/09 A3028 RMK A01 T01030091  RH  092%=      5-min Rain = 0
KCO2 210856Z 02007KT 10/09 A3028 RMK A01 T01040092  RH  092%=      5-min Rain = 0
KCO2 210857Z 01007KT 10/09 A3028 RMK A01 T01040092  RH  092%=      5-min Rain = 0
KCO2 210858Z 01007KT 11/09 A3028 RMK A01 T01050092  RH  092%=      5-min Rain = 0
KCO2 210859Z 02007KT 10/09 A3028 RMK A01 T01040091  RH  091%=      5-min Rain = 0
KCO2 210900Z 02007KT 11/09 A3028 RMK A01 T01050091  RH  091%=      5-min Rain = 0
KCO2 210901Z 02007KT 10/09 A3028 RMK A01 T01040091  RH  091%=      5-min Rain = 0
KCO2 210902Z 02007KT 11/09 A3028 RMK A01 T01050091  RH  091%=      5-min Rain = 0
KCO2 210903Z 02007KT 11/09 A3028 RMK A01 T01050091  RH  091%=      5-min Rain = 0
KCO2 210904Z 02008KT 11/09 A3028 RMK A01 T01050091  RH  091%=      5-min Rain = 0
KCO2 210905Z 02008KT 11/09 A3028 RMK A01 T01060091  RH  091%=      5-min Rain = 0
KCO2 210906Z 02008KT 11/09 A3028 RMK A01 T01060091  RH  090%=      5-min Rain = 0
KCO2 210907Z 02007KT 11/09 A3028 RMK A01 T01060090  RH  090%=      5-min Rain = 0
KCO2 210908Z 02008KT 11/09 A3028 RMK A01 T01060090  RH  090%=      5-min Rain = 0
KCO2 210909Z 02008KT 11/09 A3028 RMK A01 T01060090  RH  090%=      5-min Rain = 0
KCO2 210910Z 02007KT 11/09 A3028 RMK A01 T01060090  RH  090%=      5-min Rain = 0
KCO2 210911Z 02007KT 11/09 A3028 RMK A01 T01060089  RH  090%=      5-min Rain = 0
KCO2 210912Z 02007KT 11/09 A3028 RMK A01 T01050088  RH  089%=      5-min Rain = 0
KCO2 210913Z 03007KT 11/09 A3028 RMK A01 T01050088  RH  089%=      5-min Rain = 0
KCO2 210914Z 03008KT 10/09 A3028 RMK A01 T01040088  RH  089%=      5-min Rain = 0
KCO2 210915Z 03007KT 10/09 A3028 RMK A01 T01030087  RH  089%=      5-min Rain = 0
KCO2 210916Z 03008KT 10/09 A3028 RMK A01 T01030086  RH  089%=      5-min Rain = 0
KCO2 210917Z 03007KT 10/09 A3028 RMK A01 T01020086  RH  089%=      5-min Rain = 0
KCO2 210918Z 03007KT 10/09 A3028 RMK A01 T01010085  RH  090%=      5-min Rain = 0
KCO2 210919Z 03007KT 10/08 A3028 RMK A01 T01010084  RH  090%=      5-min Rain = 0
KCO2 210920Z 03007KT 10/08 A3028 RMK A01 T01000084  RH  090%=      5-min Rain = 0
KCO2 210921Z 03007KT 10/08 A3028 RMK A01 T01000084  RH  090%=      5-min Rain = 0
KCO2 210922Z 04007KT 10/08 A3028 RMK A01 T01000084  RH  090%=      5-min Rain = 0
KCO2 210923Z 04008KT 10/09 A3028 RMK A01 T01000085  RH  090%=      5-min Rain = 0
KCO2 210924Z 04007KT 10/08 A3028 RMK A01 T01000084  RH  090%=      5-min Rain = 0
KCO2 210925Z 03007KT 10/08 A3028 RMK A01 T01000084  RH  090%=      5-min Rain = 0
KCO2 210926Z 03007KT 10/08 A3028 RMK A01 T01000084  RH  090%=      5-min Rain = 0
KCO2 210927Z 03007KT 10/08 A3028 RMK A01 T01000084  RH  089%=      5-min Rain = 0
KCO2 210928Z 03007KT 10/08 A3028 RMK A01 T01000083  RH  089%=      5-min Rain = 0
KCO2 210929Z 03007KT 10/08 A3028 RMK A01 T01000083  RH  089%=      5-min Rain = 0
KCO2 210930Z 03007KT 10/08 A3028 RMK A01 T01000083  RH  089%=      5-min Rain = 0
KCO2 210931Z 03007KT 10/08 A3028 RMK A01 T01000083  RH  089%=      5-min Rain = 0
KCO2 210932Z 03008KT 10/08 A3028 RMK A01 T01010083  RH  089%=      5-min Rain = 0
KCO2 210933Z 03008KT 10/08 A3028 RMK A01 T01000083  RH  089%=      5-min Rain = 0
KCO2 210934Z 03008KT 10/08 A3028 RMK A01 T01010083  RH  089%=      5-min Rain = 0
KCO2 210935Z 03008KT 10/08 A3028 RMK A01 T01010083  RH  089%=      5-min Rain = 0
KCO2 210936Z 03007KT 10/08 A3028 RMK A01 T01010083  RH  089%=      5-min Rain = 0
KCO2 210937Z 03007KT 10/08 A3028 RMK A01 T01010083  RH  089%=      5-min Rain = 0
KCO2 210938Z 03007KT 10/08 A3028 RMK A01 T01010083  RH  088%=      5-min Rain = 0
KCO2 210939Z 03006KT 10/08 A3028 RMK A01 T01010083  RH  088%=      5-min Rain = 0
KCO2 210940Z 03006KT 10/08 A3028 RMK A01 T01010083  RH  088%=      5-min Rain = 0
KCO2 210941Z 03006KT 10/08 A3028 RMK A01 T01000082  RH  088%=      5-min Rain = 0
KCO2 210942Z 03007KT 10/08 A3028 RMK A01 T01000081  RH  088%=      5-min Rain = 0
KCO2 210943Z 03007KT 10/08 A3028 RMK A01 T00990081  RH  089%=      5-min Rain = 0
KCO2 210944Z 03007KT 10/08 A3028 RMK A01 T00990081  RH  089%=      5-min Rain = 0
KCO2 210945Z 03007KT 10/08 A3028 RMK A01 T00980081  RH  089%=      5-min Rain = 0
KCO2 210946Z 03007KT 10/08 A3028 RMK A01 T00980080  RH  089%=      5-min Rain = 0
KCO2 210947Z 03007KT 10/08 A3028 RMK A01 T00980080  RH  089%=      5-min Rain = 0
KCO2 210948Z 02007KT 10/08 A3028 RMK A01 T00980081  RH  089%=      5-min Rain = 0
KCO2 210949Z 02007KT 10/08 A3028 RMK A01 T00980080  RH  089%=      5-min Rain = 0
KCO2 210950Z 02008KT 10/08 A3028 RMK A01 T00980080  RH  089%=      5-min Rain = 0
KCO2 210951Z 02008KT 10/08 A3028 RMK A01 T00980080  RH  089%=      5-min Rain = 0
KCO2 210952Z 02007KT 10/08 A3028 RMK A01 T00970080  RH  089%=      5-min Rain = 0
KCO2 210953Z 02007KT 10/08 A3028 RMK A01 T00970080  RH  089%=      5-min Rain = 0
KCO2 210954Z 03007KT 10/08 A3028 RMK A01 T00980080  RH  089%=      5-min Rain = 0
KCO2 210955Z 03007KT 10/08 A3028 RMK A01 T00980080  RH  088%=      5-min Rain = 0
KCO2 210956Z 03007KT 10/08 A3028 RMK A01 T00980080  RH  088%=      5-min Rain = 0
KCO2 210957Z 03007KT 10/08 A3028 RMK A01 T00980079  RH  088%=      5-min Rain = 0
KCO2 210958Z 03007KT 10/08 A3028 RMK A01 T00980079  RH  088%=      5-min Rain = 0
KCO2 210959Z 03007KT 10/08 A3028 RMK A01 T00970079  RH  088%=      5-min Rain = 0
KCO2 211000Z 03007KT 10/08 A3028 RMK A01 T00970078  RH  088%=      5-min Rain = 0
KCO2 211001Z 03007KT 10/08 A3028 RMK A01 T00960078  RH  088%=      5-min Rain = 0
KCO2 211002Z 03007KT 10/08 A3028 RMK A01 T00960078  RH  089%=      5-min Rain = 0
KCO2 211003Z 03007KT 10/08 A3028 RMK A01 T00950077  RH  089%=      5-min Rain = 0
KCO2 211004Z 03008KT 10/08 A3028 RMK A01 T00950077  RH  089%=      5-min Rain = 0
KCO2 211005Z 04007KT 10/08 A3028 RMK A01 T00950077  RH  089%=      5-min Rain = 0
KCO2 211006Z 04007KT 10/08 A3028 RMK A01 T00950078  RH  089%=      5-min Rain = 0
KCO2 211007Z 04007KT 10/08 A3028 RMK A01 T00950077  RH  089%=      5-min Rain = 0
KCO2 211008Z 04007KT 09/08 A3028 RMK A01 T00940077  RH  089%=      5-min Rain = 0
KCO2 211009Z 04007KT 09/08 A3028 RMK A01 T00940077  RH  089%=      5-min Rain = 0
KCO2 211010Z 04007KT 10/08 A3028 RMK A01 T00950078  RH  089%=      5-min Rain = 0
KCO2 211011Z 04007KT 10/08 A3028 RMK A01 T00950078  RH  089%=      5-min Rain = 0
KCO2 211012Z 04006KT 10/08 A3028 RMK A01 T00950078  RH  089%=      5-min Rain = 0
KCO2 211013Z 04006KT 10/08 A3028 RMK A01 T00960078  RH  089%=      5-min Rain = 0
KCO2 211014Z 03006KT 10/08 A3028 RMK A01 T00960078  RH  089%=      5-min Rain = 0
KCO2 211015Z 03006KT 10/08 A3028 RMK A01 T00960078  RH  089%=      5-min Rain = 0
KCO2 211016Z 03006KT 10/08 A3028 RMK A01 T00960078  RH  089%=      5-min Rain = 0
KCO2 211017Z 03006KT 10/08 A3028 RMK A01 T00960078  RH  088%=      5-min Rain = 0
KCO2 211018Z 04006KT 10/08 A3028 RMK A01 T00960078  RH  088%=      5-min Rain = 0
KCO2 211019Z 04007KT 10/08 A3028 RMK A01 T00960078  RH  088%=      5-min Rain = 0
KCO2 211020Z 04007KT 10/08 A3028 RMK A01 T00960078  RH  089%=      5-min Rain = 0
KCO2 211021Z 04007KT 10/08 A3028 RMK A01 T00960078  RH  089%=      5-min Rain = 0
KCO2 211022Z 04007KT 10/08 A3028 RMK A01 T00970079  RH  089%=      5-min Rain = 0
KCO2 211023Z 04007KT 10/08 A3028 RMK A01 T00980080  RH  088%=      5-min Rain = 0
KCO2 211024Z 04006KT 10/08 A3028 RMK A01 T00990080  RH  088%=      5-min Rain = 0
KCO2 211025Z 04006KT 10/08 A3028 RMK A01 T00990080  RH  088%=      5-min Rain = 0
KCO2 211026Z 04007KT 10/08 A3028 RMK A01 T00990079  RH  088%=      5-min Rain = 0
KCO2 211027Z 04006KT 10/08 A3028 RMK A01 T00990079  RH  087%=      5-min Rain = 0
KCO2 211028Z 04006KT 10/08 A3028 RMK A01 T00990078  RH  087%=      5-min Rain = 0
KCO2 211029Z 04006KT 10/08 A3028 RMK A01 T00980078  RH  087%=      5-min Rain = 0
KCO2 211030Z 04007KT 10/08 A3028 RMK A01 T00980078  RH  087%=      5-min Rain = 0
KCO2 211031Z 03006KT 10/08 A3028 RMK A01 T00970078  RH  088%=      5-min Rain = 0
KCO2 211032Z 03006KT 10/08 A3028 RMK A01 T00970078  RH  088%=      5-min Rain = 0
KCO2 211033Z 03006KT 10/08 A3028 RMK A01 T00970078  RH  088%=      5-min Rain = 0
KCO2 211034Z 03006KT 10/08 A3028 RMK A01 T00970078  RH  088%=      5-min Rain = 0
KCO2 211035Z 03006KT 10/08 A3028 RMK A01 T00970078  RH  088%=      5-min Rain = 0
KCO2 211036Z 03006KT 10/08 A3028 RMK A01 T00970077  RH  088%=      5-min Rain = 0
KCO2 211037Z 03007KT 10/08 A3028 RMK A01 T00970078  RH  088%=      5-min Rain = 0
KCO2 211038Z 03007KT 10/08 A3028 RMK A01 T00970078  RH  088%=      5-min Rain = 0
KCO2 211039Z 03007KT 10/08 A3028 RMK A01 T00970078  RH  088%=      5-min Rain = 0
KCO2 211040Z 03008KT 10/08 A3028 RMK A01 T00970078  RH  088%=      5-min Rain = 0
KCO2 211041Z 03008KT 10/08 A3028 RMK A01 T00970078  RH  088%=      5-min Rain = 0
KCO2 211042Z 03008KT 10/08 A3028 RMK A01 T00960078  RH  088%=      5-min Rain = 0
KCO2 211043Z 03008KT 10/08 A3028 RMK A01 T00970078  RH  088%=      5-min Rain = 0
KCO2 211044Z 03008KT 10/08 A3028 RMK A01 T00980078  RH  088%=      5-min Rain = 0
KCO2 211045Z 03008KT 10/08 A3028 RMK A01 T00980079  RH  088%=      5-min Rain = 0
KCO2 211046Z 03007KT 10/08 A3028 RMK A01 T00990079  RH  087%=      5-min Rain = 0
KCO2 211047Z 03007KT 10/08 A3028 RMK A01 T00990079  RH  087%=      5-min Rain = 0
KCO2 211048Z 03007KT 10/08 A3028 RMK A01 T00990078  RH  087%=      5-min Rain = 0
KCO2 211049Z 03006KT 10/08 A3029 RMK A01 T00990078  RH  087%=      5-min Rain = 0
KCO2 211050Z 04007KT 10/08 A3029 RMK A01 T01000079  RH  087%=      5-min Rain = 0
KCO2 211051Z 03007KT 10/08 A3029 RMK A01 T01000079  RH  087%=      5-min Rain = 0
KCO2 211052Z 03007KT 10/08 A3029 RMK A01 T01010079  RH  087%=      5-min Rain = 0
KCO2 211053Z 03007KT 10/08 A3029 RMK A01 T01010079  RH  086%=      5-min Rain = 0
KCO2 211054Z 03007KT 10/08 A3029 RMK A01 T01010079  RH  086%=      5-min Rain = 0
KCO2 211055Z 03008KT 10/08 A3029 RMK A01 T01020078  RH  086%=      5-min Rain = 0
KCO2 211056Z 03007KT 10/08 A3029 RMK A01 T01020079  RH  085%=      5-min Rain = 0
KCO2 211057Z 03007KT 10/08 A3029 RMK A01 T01020078  RH  085%=      5-min Rain = 0
KCO2 211058Z 03006KT 10/08 A3029 RMK A01 T01020078  RH  085%=      5-min Rain = 0
KCO2 211059Z 03006KT 10/08 A3029 RMK A01 T01020078  RH  085%=      5-min Rain = 0
KCO2 211100Z 03006KT 10/08 A3029 RMK A01 T01010077  RH  085%=      5-min Rain = 0
KCO2 211101Z 03007KT 10/08 A3029 RMK A01 T01000077  RH  086%=      5-min Rain = 0
KCO2 211102Z 03008KT 10/08 A3029 RMK A01 T00990076  RH  086%=      5-min Rain = 0
KCO2 211103Z 03008KT 10/08 A3029 RMK A01 T00980076  RH  086%=      5-min Rain = 0
KCO2 211104Z 03008KT 10/08 A3029 RMK A01 T00980076  RH  086%=      5-min Rain = 0
KCO2 211105Z 03008KT 10/08 A3029 RMK A01 T00980076  RH  086%=      5-min Rain = 0
KCO2 211106Z 03007KT 10/08 A3029 RMK A01 T00980076  RH  087%=      5-min Rain = 0
KCO2 211107Z 03007KT 10/08 A3029 RMK A01 T00980077  RH  087%=      5-min Rain = 0
KCO2 211108Z 04007KT 10/08 A3029 RMK A01 T00980077  RH  087%=      5-min Rain = 0
KCO2 211109Z 04007KT 10/08 A3028 RMK A01 T00980077  RH  087%=      5-min Rain = 0
KCO2 211110Z 04007KT 10/08 A3028 RMK A01 T00980077  RH  087%=      5-min Rain = 0
KCO2 211111Z 04007KT 10/08 A3029 RMK A01 T00990078  RH  087%=      5-min Rain = 0
KCO2 211112Z 04007KT 10/08 A3029 RMK A01 T01000078  RH  086%=      5-min Rain = 0
KCO2 211113Z 04007KT 10/08 A3029 RMK A01 T01010078  RH  086%=      5-min Rain = 0
KCO2 211114Z 04007KT 10/08 A3028 RMK A01 T01010078  RH  086%=      5-min Rain = 0
KCO2 211115Z 04007KT 10/08 A3029 RMK A01 T01010078  RH  086%=      5-min Rain = 0
KCO2 211116Z 04007KT 10/08 A3029 RMK A01 T01020078  RH  085%=      5-min Rain = 0
KCO2 211117Z 04006KT 10/08 A3029 RMK A01 T01020079  RH  085%=      5-min Rain = 0
KCO2 211118Z 04007KT 10/08 A3029 RMK A01 T01030078  RH  085%=      5-min Rain = 0
KCO2 211119Z 03006KT 10/08 A3029 RMK A01 T01030079  RH  085%=      5-min Rain = 0
KCO2 211120Z 04007KT 10/08 A3029 RMK A01 T01040079  RH  084%=      5-min Rain = 0
KCO2 211121Z 04006KT 10/08 A3029 RMK A01 T01040078  RH  084%=      5-min Rain = 0
KCO2 211122Z 03006KT 11/08 A3029 RMK A01 T01050078  RH  084%=      5-min Rain = 0
KCO2 211123Z 03006KT 11/08 A3029 RMK A01 T01050078  RH  084%=      5-min Rain = 0
KCO2 211124Z 03006KT 11/08 A3029 RMK A01 T01050078  RH  084%=      5-min Rain = 0
KCO2 211125Z 03007KT 11/08 A3029 RMK A01 T01050078  RH  083%=      5-min Rain = 0
KCO2 211126Z 02007KT 11/08 A3029 RMK A01 T01050078  RH  083%=      5-min Rain = 0
KCO2 211127Z 03007KT 11/08 A3029 RMK A01 T01060078  RH  083%=      5-min Rain = 0
KCO2 211128Z 02006KT 11/08 A3029 RMK A01 T01060078  RH  083%=      5-min Rain = 0
KCO2 211129Z 02006KT 11/08 A3029 RMK A01 T01060078  RH  082%=      5-min Rain = 0
KCO2 211130Z 02006KT 11/08 A303 RMK A01 T01060078  RH  083%=      5-min Rain = 0
KCO2 211131Z 02007KT 11/08 A303 RMK A01 T01060078  RH  083%=      5-min Rain = 0
KCO2 211132Z 03006KT 11/08 A303 RMK A01 T01060077  RH  083%=      5-min Rain = 0
KCO2 211133Z 02007KT 11/08 A303 RMK A01 T01060078  RH  083%=      5-min Rain = 0
KCO2 211134Z 02006KT 11/08 A303 RMK A01 T01060078  RH  083%=      5-min Rain = 0
KCO2 211135Z 02006KT 11/08 A303 RMK A01 T01050078  RH  083%=      5-min Rain = 0
KCO2 211136Z 02006KT 11/08 A303 RMK A01 T01050078  RH  083%=      5-min Rain = 0
KCO2 211137Z 02005KT 11/08 A303 RMK A01 T01050078  RH  083%=      5-min Rain = 0
KCO2 211138Z 02005KT 10/08 A303 RMK A01 T01040078  RH  084%=      5-min Rain = 0
KCO2 211139Z 02005KT 10/08 A303 RMK A01 T01040078  RH  084%=      5-min Rain = 0
KCO2 211140Z 02006KT 10/08 A303 RMK A01 T01040077  RH  084%=      5-min Rain = 0
KCO2 211141Z 03006KT 10/08 A303 RMK A01 T01030077  RH  084%=      5-min Rain = 0
KCO2 211142Z 02006KT 10/08 A303 RMK A01 T01030077  RH  084%=      5-min Rain = 0
KCO2 211143Z 03007KT 10/08 A303 RMK A01 T01020077  RH  084%=      5-min Rain = 0
KCO2 211144Z 03007KT 10/08 A303 RMK A01 T01020077  RH  084%=      5-min Rain = 0
KCO2 211145Z 03007KT 10/08 A303 RMK A01 T01010077  RH  085%=      5-min Rain = 0
KCO2 211146Z 03007KT 10/08 A303 RMK A01 T01010076  RH  085%=      5-min Rain = 0
KCO2 211147Z 03007KT 10/08 A303 RMK A01 T01000076  RH  085%=      5-min Rain = 0
KCO2 211148Z 03007KT 10/08 A303 RMK A01 T01000077  RH  085%=      5-min Rain = 0
KCO2 211149Z 03007KT 10/08 A303 RMK A01 T01000076  RH  085%=      5-min Rain = 0
KCO2 211150Z 03007KT 10/08 A303 RMK A01 T01000077  RH  085%=      5-min Rain = 0
KCO2 211151Z 03007KT 10/08 A303 RMK A01 T01000076  RH  085%=      5-min Rain = 0
KCO2 211152Z 03006KT 10/08 A303 RMK A01 T01000077  RH  085%=      5-min Rain = 0
KCO2 211153Z 03006KT 10/08 A303 RMK A01 T01000077  RH  085%=      5-min Rain = 0
KCO2 211154Z 03006KT 10/08 A303 RMK A01 T01000076  RH  085%=      5-min Rain = 0
KCO2 211155Z 03006KT 10/08 A303 RMK A01 T01000077  RH  085%=      5-min Rain = 0
KCO2 211156Z 03005KT 10/08 A303 RMK A01 T01010078  RH  085%=      5-min Rain = 0
KCO2 211157Z 04004KT 10/08 A303 RMK A01 T01010078  RH  085%=      5-min Rain = 0
KCO2 211158Z 04005KT 10/08 A303 RMK A01 T01010078  RH  085%=      5-min Rain = 0
KCO2 211159Z 04005KT 10/08 A303 RMK A01 T01020079  RH  086%=      5-min Rain = 0
KCO2 211200Z 04006KT 10/08 A303 RMK A01 T01020080  RH  086%=      5-min Rain = 0
KCO2 211201Z 04006KT 10/08 A303 RMK A01 T01020080  RH  086%=      5-min Rain = 0
KCO2 211202Z 04006KT 10/08 A303 RMK A01 T01030081  RH  086%=      5-min Rain = 0
KCO2 211203Z 05006KT 10/08 A303 RMK A01 T01040082  RH  086%=      5-min Rain = 0
KCO2 211204Z 04007KT 10/08 A303 RMK A01 T01040083  RH  086%=      5-min Rain = 0
KCO2 211205Z 05006KT 11/08 A303 RMK A01 T01050083  RH  086%=      5-min Rain = 0
KCO2 211206Z 05006KT 11/08 A303 RMK A01 T01060084  RH  086%=      5-min Rain = 0
KCO2 211207Z 05006KT 11/08 A303 RMK A01 T01070084  RH  086%=      5-min Rain = 0
KCO2 211208Z 05006KT 11/08 A303 RMK A01 T01070084  RH  086%=      5-min Rain = 0
KCO2 211209Z 05005KT 11/08 A303 RMK A01 T01070084  RH  085%=      5-min Rain = 0
KCO2 211210Z 06005KT 11/08 A303 RMK A01 T01070083  RH  085%=      5-min Rain = 0
KCO2 211211Z 05005KT 11/08 A303 RMK A01 T01070083  RH  085%=      5-min Rain = 0
KCO2 211212Z 05006KT 11/08 A303 RMK A01 T01070083  RH  086%=      5-min Rain = 0
KCO2 211213Z 05005KT 11/08 A3029 RMK A01 T01060083  RH  086%=      5-min Rain = 0
KCO2 211214Z 05006KT 11/08 A3029 RMK A01 T01060083  RH  086%=      5-min Rain = 0
KCO2 211215Z 05005KT 11/08 A3029 RMK A01 T01050083  RH  086%=      5-min Rain = 0
KCO2 211216Z 05005KT 11/08 A3029 RMK A01 T01050083  RH  086%=      5-min Rain = 0
KCO2 211217Z 06005KT 11/08 A3029 RMK A01 T01050083  RH  087%=      5-min Rain = 0
KCO2 211218Z 06005KT 11/08 A303 RMK A01 T01050084  RH  087%=      5-min Rain = 0
KCO2 211219Z 06005KT 11/08 A303 RMK A01 T01050084  RH  087%=      5-min Rain = 0
KCO2 211220Z 06005KT 10/08 A303 RMK A01 T01040083  RH  087%=      5-min Rain = 0
KCO2 211221Z 06006KT 10/08 A303 RMK A01 T01040083  RH  087%=      5-min Rain = 0
KCO2 211222Z 06006KT 10/08 A303 RMK A01 T01040084  RH  087%=      5-min Rain = 0
KCO2 211223Z 06006KT 10/08 A303 RMK A01 T01040084  RH  087%=      5-min Rain = 0
KCO2 211224Z 06006KT 10/08 A303 RMK A01 T01040084  RH  087%=      5-min Rain = 0
KCO2 211225Z 06005KT 10/08 A303 RMK A01 T01040084  RH  087%=      5-min Rain = 0
KCO2 211226Z 06005KT 11/09 A303 RMK A01 T01050085  RH  087%=      5-min Rain = 0
KCO2 211227Z 05005KT 11/08 A303 RMK A01 T01050084  RH  087%=      5-min Rain = 0
KCO2 211228Z 05005KT 11/08 A303 RMK A01 T01050084  RH  087%=      5-min Rain = 0
KCO2 211229Z 05005KT 11/08 A303 RMK A01 T01050084  RH  087%=      5-min Rain = 0
KCO2 211230Z 04006KT 11/08 A3031 RMK A01 T01050084  RH  087%=      5-min Rain = 0
KCO2 211231Z 04006KT 11/08 A3031 RMK A01 T01050084  RH  087%=      5-min Rain = 0
KCO2 211232Z 04006KT 10/08 A3031 RMK A01 T01040084  RH  087%=      5-min Rain = 0
KCO2 211233Z 04006KT 10/08 A3031 RMK A01 T01030084  RH  088%=      5-min Rain = 0
KCO2 211234Z 04006KT 10/08 A3031 RMK A01 T01040084  RH  088%=      5-min Rain = 0
KCO2 211235Z 04006KT 10/08 A3031 RMK A01 T01040084  RH  088%=      5-min Rain = 0
KCO2 211236Z 04006KT 10/08 A3031 RMK A01 T01030084  RH  088%=      5-min Rain = 0
KCO2 211237Z 05006KT 10/08 A3031 RMK A01 T01030084  RH  088%=      5-min Rain = 0
KCO2 211238Z 05006KT 10/08 A3031 RMK A01 T01030084  RH  088%=      5-min Rain = 0
KCO2 211239Z 05006KT 10/08 A3031 RMK A01 T01030084  RH  088%=      5-min Rain = 0
KCO2 211240Z 05006KT 10/08 A3031 RMK A01 T01030084  RH  088%=      5-min Rain = 0
KCO2 211241Z 04005KT 10/08 A3031 RMK A01 T01020084  RH  088%=      5-min Rain = 0
KCO2 211242Z 04005KT 10/08 A3031 RMK A01 T01020084  RH  088%=      5-min Rain = 0
KCO2 211243Z 04005KT 10/08 A3031 RMK A01 T01020084  RH  089%=      5-min Rain = 0
KCO2 211244Z 04005KT 10/08 A3031 RMK A01 T01020084  RH  089%=      5-min Rain = 0
KCO2 211245Z 04005KT 10/08 A3031 RMK A01 T01010084  RH  089%=      5-min Rain = 0
KCO2 211246Z 05005KT 10/08 A3031 RMK A01 T01010084  RH  089%=      5-min Rain = 0
KCO2 211247Z 05005KT 10/08 A3031 RMK A01 T01010084  RH  089%=      5-min Rain = 0
KCO2 211248Z 05005KT 10/08 A3031 RMK A01 T01010084  RH  089%=      5-min Rain = 0
KCO2 211249Z 06006KT 10/08 A3031 RMK A01 T01010084  RH  089%=      5-min Rain = 0
KCO2 211250Z 06006KT 10/08 A3031 RMK A01 T01010084  RH  089%=      5-min Rain = 0
KCO2 211251Z 06006KT 10/08 A3031 RMK A01 T01010084  RH  089%=      5-min Rain = 0
KCO2 211252Z 06006KT 10/08 A3031 RMK A01 T01010083  RH  089%=      5-min Rain = 0
KCO2 211253Z 06006KT 10/08 A3031 RMK A01 T01010084  RH  089%=      5-min Rain = 0
KCO2 211254Z 06006KT 10/08 A3031 RMK A01 T01000084  RH  090%=      5-min Rain = 0
KCO2 211255Z 06005KT 10/08 A3031 RMK A01 T01000084  RH  090%=      5-min Rain = 0
KCO2 211256Z 06005KT 10/08 A3031 RMK A01 T01000084  RH  090%=      5-min Rain = 0
KCO2 211257Z 06005KT 10/08 A3031 RMK A01 T01000084  RH  090%=      5-min Rain = 0
KCO2 211258Z 06006KT 10/08 A3031 RMK A01 T01000084  RH  090%=      5-min Rain = 0
KCO2 211259Z 06006KT 10/08 A3031 RMK A01 T00990083  RH  090%=      5-min Rain = 0
KCO2 211300Z 06006KT 10/08 A3031 RMK A01 T00990083  RH  090%=      5-min Rain = 0
KCO2 211301Z 06006KT 10/08 A3031 RMK A01 T00980083  RH  090%=      5-min Rain = 0
KCO2 211302Z 06006KT 10/08 A3031 RMK A01 T00990084  RH  090%=      5-min Rain = 0
KCO2 211303Z 06006KT 10/08 A303 RMK A01 T00990084  RH  091%=      5-min Rain = 0
KCO2 211304Z 07006KT 10/08 A303 RMK A01 T00980084  RH  091%=      5-min Rain = 0
KCO2 211305Z 07006KT 10/08 A303 RMK A01 T00980084  RH  091%=      5-min Rain = 0
KCO2 211306Z 07006KT 10/08 A303 RMK A01 T00980084  RH  091%=      5-min Rain = 0
KCO2 211307Z 06006KT 10/08 A303 RMK A01 T00990084  RH  091%=      5-min Rain = 0
KCO2 211308Z 06006KT 10/08 A303 RMK A01 T00990084  RH  091%=      5-min Rain = 0
KCO2 211309Z 06006KT 10/08 A3031 RMK A01 T00980084  RH  091%=      5-min Rain = 0
KCO2 211310Z 06006KT 10/08 A3031 RMK A01 T00980084  RH  091%=      5-min Rain = 0
KCO2 211311Z 06006KT 10/08 A3031 RMK A01 T00980084  RH  091%=      5-min Rain = 0
KCO2 211312Z 06007KT 10/08 A3031 RMK A01 T00980084  RH  091%=      5-min Rain = 0
KCO2 211313Z 06006KT 10/08 A3031 RMK A01 T00980084  RH  091%=      5-min Rain = 0
KCO2 211314Z 07006KT 10/08 A3031 RMK A01 T00980084  RH  091%=      5-min Rain = 0
KCO2 211315Z 07006KT 10/08 A3031 RMK A01 T00980084  RH  091%=      5-min Rain = 0
KCO2 211316Z 07006KT 10/08 A3031 RMK A01 T00980084  RH  091%=      5-min Rain = 0
KCO2 211317Z 07006KT 10/08 A3031 RMK A01 T00980084  RH  091%=      5-min Rain = 0
KCO2 211318Z 07006KT 10/08 A3031 RMK A01 T00980084  RH  091%=      5-min Rain = 0
KCO2 211319Z 08006KT 10/08 A3031 RMK A01 T00980084  RH  091%=      5-min Rain = 0
KCO2 211320Z 08006KT 10/08 A3031 RMK A01 T00980084  RH  091%=      5-min Rain = 0
KCO2 211321Z 08006KT 10/08 A3031 RMK A01 T00970083  RH  091%=      5-min Rain = 0
KCO2 211322Z 08006KT 10/08 A3031 RMK A01 T00960082  RH  091%=      5-min Rain = 0
KCO2 211323Z 08006KT 10/08 A3031 RMK A01 T00960083  RH  091%=      5-min Rain = 0
KCO2 211324Z 08006KT 10/08 A3031 RMK A01 T00960083  RH  092%=      5-min Rain = 0
KCO2 211325Z 07007KT 10/08 A3031 RMK A01 T00960083  RH  092%=      5-min Rain = 0
KCO2 211326Z 07006KT 10/08 A3031 RMK A01 T00960083  RH  092%=      5-min Rain = 0
KCO2 211327Z 07006KT 10/08 A3031 RMK A01 T00960083  RH  092%=      5-min Rain = 0
KCO2 211328Z 07006KT 10/08 A3031 RMK A01 T00960084  RH  092%=      5-min Rain = 0
KCO2 211329Z 08007KT 10/08 A3031 RMK A01 T00960084  RH  092%=      5-min Rain = 0
KCO2 211330Z 07006KT 10/08 A3031 RMK A01 T00970084  RH  092%=      5-min Rain = 0
KCO2 211331Z 07007KT 10/09 A3031 RMK A01 T00970085  RH  092%=      5-min Rain = 0
KCO2 211332Z 07007KT 10/09 A3031 RMK A01 T00980085  RH  092%=      5-min Rain = 0
KCO2 211333Z 07007KT 10/09 A3031 RMK A01 T00980086  RH  092%=      5-min Rain = 0
KCO2 211334Z 08006KT 10/09 A3032 RMK A01 T00990086  RH  092%=      5-min Rain = 0
KCO2 211335Z 07007KT 10/09 A3032 RMK A01 T00990086  RH  091%=      5-min Rain = 0
KCO2 211336Z 07006KT 10/09 A3032 RMK A01 T01000087  RH  091%=      5-min Rain = 0
KCO2 211337Z 07006KT 10/09 A3032 RMK A01 T01000087  RH  091%=      5-min Rain = 0
KCO2 211338Z 07006KT 10/09 A3032 RMK A01 T01010087  RH  091%=      5-min Rain = 0
KCO2 211339Z 07006KT 10/09 A3032 RMK A01 T01010087  RH  091%=      5-min Rain = 0
KCO2 211340Z 07006KT 10/09 A3032 RMK A01 T01020087  RH  091%=      5-min Rain = 0
KCO2 211341Z 07006KT 10/09 A3032 RMK A01 T01020087  RH  091%=      5-min Rain = 0
KCO2 211342Z 07005KT 10/09 A3032 RMK A01 T01020088  RH  090%=      5-min Rain = 0
KCO2 211343Z 07006KT 10/09 A3032 RMK A01 T01030088  RH  090%=      5-min Rain = 0
KCO2 211344Z 07005KT 10/09 A3032 RMK A01 T01030087  RH  090%=      5-min Rain = 0
KCO2 211345Z 07005KT 10/09 A3032 RMK A01 T01030087  RH  090%=      5-min Rain = 0
KCO2 211346Z 08005KT 10/09 A3032 RMK A01 T01030087  RH  090%=      5-min Rain = 0
KCO2 211347Z 08005KT 10/09 A3032 RMK A01 T01030087  RH  090%=      5-min Rain = 0
KCO2 211348Z 08005KT 10/09 A3032 RMK A01 T01030088  RH  090%=      5-min Rain = 0
KCO2 211349Z 08004KT 10/09 A3032 RMK A01 T01030088  RH  090%=      5-min Rain = 0
KCO2 211350Z 09005KT 10/09 A3032 RMK A01 T01030088  RH  090%=      5-min Rain = 0
KCO2 211351Z 08005KT 10/09 A3032 RMK A01 T01030088  RH  091%=      5-min Rain = 0
KCO2 211352Z 09004KT 10/09 A3032 RMK A01 T01020088  RH  091%=      5-min Rain = 0
KCO2 211353Z 08004KT 10/09 A3032 RMK A01 T01030088  RH  091%=      5-min Rain = 0
KCO2 211354Z 09003KT 10/09 A3032 RMK A01 T01030088  RH  091%=      5-min Rain = 0
KCO2 211355Z 08003KT 10/09 A3032 RMK A01 T01030088  RH  091%=      5-min Rain = 0
KCO2 211356Z 08002KT 10/09 A3032 RMK A01 T01020088  RH  091%=      5-min Rain = 0
KCO2 211357Z 08002KT 10/09 A3033 RMK A01 T01030088  RH  091%=      5-min Rain = 0
KCO2 211358Z 09002KT 10/09 A3033 RMK A01 T01030088  RH  091%=      5-min Rain = 0
KCO2 211359Z 09002KT 10/09 A3033 RMK A01 T01030088  RH  091%=      5-min Rain = 0
KCO2 211400Z 08001KT 10/09 A3033 RMK A01 T01030088  RH  091%=      5-min Rain = 0
KCO2 211401Z 09002KT 10/09 A3033 RMK A01 T01030088  RH  090%=      5-min Rain = 0
KCO2 211402Z 09002KT 10/09 A3033 RMK A01 T01040088  RH  090%=      5-min Rain = 0
KCO2 211403Z 09002KT 10/09 A3033 RMK A01 T01040089  RH  090%=      5-min Rain = 0
KCO2 211404Z 08002KT 11/09 A3033 RMK A01 T01050089  RH  090%=      5-min Rain = 0
KCO2 211405Z 10001KT 11/09 A3033 RMK A01 T01060089  RH  090%=      5-min Rain = 0
KCO2 211406Z 10002KT 11/09 A3033 RMK A01 T01060090  RH  089%=      5-min Rain = 0
KCO2 211407Z 09002KT 11/09 A3033 RMK A01 T01070090  RH  089%=      5-min Rain = 0
KCO2 211408Z 08002KT 11/09 A3033 RMK A01 T01070089  RH  089%=      5-min Rain = 0
KCO2 211409Z 07002KT 11/09 A3033 RMK A01 T01080090  RH  089%=      5-min Rain = 0
KCO2 211410Z 07002KT 11/09 A3034 RMK A01 T01090090  RH  088%=      5-min Rain = 0
KCO2 211411Z 08003KT 11/09 A3034 RMK A01 T01090091  RH  088%=      5-min Rain = 0
KCO2 211412Z 07004KT 11/09 A3034 RMK A01 T01110092  RH  088%=      5-min Rain = 0
KCO2 211413Z 08003KT 11/09 A3034 RMK A01 T01120092  RH  088%=      5-min Rain = 0
KCO2 211414Z 08003KT 11/09 A3034 RMK A01 T01130092  RH  087%=      5-min Rain = 0
KCO2 211415Z 08004KT 11/09 A3034 RMK A01 T01140093  RH  087%=      5-min Rain = 0
KCO2 211416Z 07003KT 12/09 A3034 RMK A01 T01150094  RH  087%=      5-min Rain = 0
KCO2 211417Z 09004KT 12/09 A3034 RMK A01 T01160094  RH  086%=      5-min Rain = 0
KCO2 211418Z 09004KT 12/09 A3034 RMK A01 T01170094  RH  086%=      5-min Rain = 0
KCO2 211419Z 10005KT 12/09 A3034 RMK A01 T01170093  RH  085%=      5-min Rain = 0
KCO2 211420Z 09004KT 12/09 A3034 RMK A01 T01180093  RH  085%=      5-min Rain = 0
KCO2 211421Z 07005KT 12/09 A3034 RMK A01 T01180093  RH  084%=      5-min Rain = 0
KCO2 211422Z 06006KT 12/09 A3034 RMK A01 T01180092  RH  084%=      5-min Rain = 0
KCO2 211423Z 07005KT 12/09 A3034 RMK A01 T01180094  RH  085%=      5-min Rain = 0
KCO2 211424Z 08005KT 12/09 A3034 RMK A01 T01190094  RH  085%=      5-min Rain = 0
KCO2 211425Z 08005KT 12/10 A3034 RMK A01 T01200095  RH  084%=      5-min Rain = 0
KCO2 211426Z 09007KT 12/10 A3034 RMK A01 T01210095  RH  084%=      5-min Rain = 0
KCO2 211427Z 09005KT 12/10 A3034 RMK A01 T01210095  RH  084%=      5-min Rain = 0
KCO2 211428Z 10006KT 12/10 A3034 RMK A01 T01220095  RH  084%=      5-min Rain = 0
KCO2 211429Z 10008KT 12/10 A3034 RMK A01 T01230095  RH  083%=      5-min Rain = 0
KCO2 211430Z 09007KT 12/10 A3034 RMK A01 T01230095  RH  083%=      5-min Rain = 0
KCO2 211431Z 10006KT 12/10 A3033 RMK A01 T01230095  RH  083%=      5-min Rain = 0
KCO2 211432Z 09008KT 12/10 A3034 RMK A01 T01240096  RH  083%=      5-min Rain = 0
KCO2 211433Z 09009KT 13/10 A3034 RMK A01 T01250096  RH  082%=      5-min Rain = 0
KCO2 211434Z 08008KT 13/10 A3034 RMK A01 T01250095  RH  082%=      5-min Rain = 0
KCO2 211435Z 08007KT 13/10 A3034 RMK A01 T01260096  RH  082%=      5-min Rain = 0
KCO2 211436Z 09007KT 13/10 A3034 RMK A01 T01260096  RH  082%=      5-min Rain = 0
KCO2 211437Z 11005KT 13/10 A3034 RMK A01 T01270096  RH  082%=      5-min Rain = 0
KCO2 211438Z 11006KT 13/10 A3034 RMK A01 T01280097  RH  081%=      5-min Rain = 0
KCO2 211439Z 11006KT 13/10 A3034 RMK A01 T01280096  RH  081%=      5-min Rain = 0
KCO2 211440Z 11007KT 13/10 A3034 RMK A01 T01280096  RH  081%=      5-min Rain = 0
KCO2 211441Z 11007KT 13/10 A3034 RMK A01 T01270096  RH  082%=      5-min Rain = 0
KCO2 211442Z 12006KT 13/10 A3034 RMK A01 T01260096  RH  082%=      5-min Rain = 0
KCO2 211443Z 11005KT 13/10 A3034 RMK A01 T01250096  RH  083%=      5-min Rain = 0
KCO2 211444Z 12007KT 13/10 A3034 RMK A01 T01250097  RH  083%=      5-min Rain = 0
KCO2 211445Z 11006KT 13/10 A3034 RMK A01 T01250096  RH  083%=      5-min Rain = 0
KCO2 211446Z 12006KT 12/10 A3034 RMK A01 T01240096  RH  083%=      5-min Rain = 0
KCO2 211447Z 11006KT 12/10 A3034 RMK A01 T01230096  RH  083%=      5-min Rain = 0
KCO2 211448Z 11006KT 12/10 A3034 RMK A01 T01230096  RH  083%=      5-min Rain = 0
KCO2 211449Z 12004KT 12/10 A3034 RMK A01 T01230096  RH  084%=      5-min Rain = 0
KCO2 211450Z 11004KT 12/10 A3034 RMK A01 T01230096  RH  084%=      5-min Rain = 0
KCO2 211451Z 12005KT 12/10 A3034 RMK A01 T01230096  RH  084%=      5-min Rain = 0
KCO2 211452Z 12005KT 12/10 A3034 RMK A01 T01230097  RH  084%=      5-min Rain = 0
KCO2 211453Z 11004KT 12/10 A3034 RMK A01 T01240098  RH  084%=      5-min Rain = 0
KCO2 211454Z 12005KT 12/10 A3034 RMK A01 T01240097  RH  084%=      5-min Rain = 0
KCO2 211455Z 12005KT 13/10 A3034 RMK A01 T01250098  RH  084%=      5-min Rain = 0
KCO2 211456Z 12006KT 13/10 A3034 RMK A01 T01250099  RH  084%=      5-min Rain = 0
KCO2 211457Z 12006KT 13/10 A3034 RMK A01 T01260099  RH  084%=      5-min Rain = 0
KCO2 211458Z 13005KT 13/10 A3034 RMK A01 T01270099  RH  083%=      5-min Rain = 0
KCO2 211459Z 12006KT 13/10 A3034 RMK A01 T01270100  RH  083%=      5-min Rain = 0
KCO2 211500Z 12006KT 13/10 A3034 RMK A01 T01280101  RH  083%=      5-min Rain = 0
KCO2 211501Z 12006KT 13/10 A3034 RMK A01 T01290101  RH  083%=      5-min Rain = 0
KCO2 211502Z 11008KT 13/10 A3034 RMK A01 T01290101  RH  083%=      5-min Rain = 0
KCO2 211503Z 12008KT 13/10 A3034 RMK A01 T01290100  RH  082%=      5-min Rain = 0
KCO2 211504Z 11006KT 13/10 A3034 RMK A01 T01290099  RH  082%=      5-min Rain = 0
KCO2 211505Z 11005KT 13/10 A3034 RMK A01 T01290100  RH  083%=      5-min Rain = 0
KCO2 211506Z 11007KT 13/10 A3034 RMK A01 T01290100  RH  082%=      5-min Rain = 0
KCO2 211507Z 11006KT 13/10 A3034 RMK A01 T01290099  RH  082%=      5-min Rain = 0
KCO2 211508Z 10005KT 13/10 A3034 RMK A01 T01280099  RH  082%=      5-min Rain = 0
KCO2 211509Z 11005KT 13/10 A3034 RMK A01 T01280100  RH  083%=      5-min Rain = 0
KCO2 211510Z 11006KT 13/10 A3035 RMK A01 T01280100  RH  083%=      5-min Rain = 0
KCO2 211511Z 11007KT 13/10 A3035 RMK A01 T01280099  RH  083%=      5-min Rain = 0
KCO2 211512Z 12006KT 13/10 A3035 RMK A01 T01280099  RH  083%=      5-min Rain = 0
KCO2 211513Z 11006KT 13/10 A3035 RMK A01 T01280100  RH  083%=      5-min Rain = 0
KCO2 211514Z 12005KT 13/10 A3035 RMK A01 T01280100  RH  083%=      5-min Rain = 0
KCO2 211515Z 11004KT 13/10 A3034 RMK A01 T01290100  RH  083%=      5-min Rain = 0
KCO2 211516Z 12007KT 13/10 A3034 RMK A01 T01290101  RH  083%=      5-min Rain = 0
KCO2 211517Z 12005KT 13/10 A3034 RMK A01 T01300101  RH  083%=      5-min Rain = 0
KCO2 211518Z 12004KT 13/10 A3034 RMK A01 T01300101  RH  083%=      5-min Rain = 0
KCO2 211519Z 11005KT 13/10 A3034 RMK A01 T01310103  RH  083%=      5-min Rain = 0
KCO2 211520Z 12006KT 13/10 A3034 RMK A01 T01320102  RH  082%=      5-min Rain = 0
KCO2 211521Z 12007KT 13/10 A3034 RMK A01 T01320102  RH  082%=      5-min Rain = 0
KCO2 211522Z 12007KT 13/10 A3034 RMK A01 T01320102  RH  082%=      5-min Rain = 0
KCO2 211523Z 11006KT 13/10 A3034 RMK A01 T01320102  RH  082%=      5-min Rain = 0
KCO2 211524Z 12007KT 13/10 A3034 RMK A01 T01320102  RH  082%=      5-min Rain = 0
KCO2 211525Z 12007KT 13/10 A3034 RMK A01 T01320102  RH  082%=      5-min Rain = 0
KCO2 211526Z 12007KT 13/10 A3034 RMK A01 T01330102  RH  082%=      5-min Rain = 0
KCO2 211527Z 12007KT 13/10 A3034 RMK A01 T01330102  RH  081%=      5-min Rain = 0
KCO2 211528Z 12005KT 13/10 A3034 RMK A01 T01330102  RH  081%=      5-min Rain = 0
KCO2 211529Z 11005KT 13/10 A3034 RMK A01 T01340103  RH  082%=      5-min Rain = 0
KCO2 211530Z 11006KT 14/10 A3034 RMK A01 T01350103  RH  081%=      5-min Rain = 0
KCO2 211531Z 11007KT 14/10 A3034 RMK A01 T01350103  RH  081%=      5-min Rain = 0
KCO2 211532Z 11007KT 14/10 A3034 RMK A01 T01350103  RH  081%=      5-min Rain = 0
KCO2 211533Z 11007KT 14/10 A3034 RMK A01 T01360103  RH  081%=      5-min Rain = 0
KCO2 211534Z 11005KT 14/10 A3034 RMK A01 T01360104  RH  081%=      5-min Rain = 0
KCO2 211535Z 10005KT 14/10 A3034 RMK A01 T01370104  RH  081%=      5-min Rain = 0
KCO2 211536Z 09006KT 14/11 A3034 RMK A01 T01370105  RH  081%=      5-min Rain = 0
KCO2 211537Z 10005KT 14/10 A3034 RMK A01 T01380104  RH  080%=      5-min Rain = 0
KCO2 211538Z 11005KT 14/10 A3034 RMK A01 T01380104  RH  080%=      5-min Rain = 0
KCO2 211539Z 10005KT 14/11 A3034 RMK A01 T01380105  RH  080%=      5-min Rain = 0
KCO2 211540Z 10005KT 14/11 A3034 RMK A01 T01390105  RH  080%=      5-min Rain = 0
KCO2 211541Z 10005KT 14/11 A3034 RMK A01 T01390105  RH  080%=      5-min Rain = 0
KCO2 211542Z 10005KT 14/11 A3034 RMK A01 T01390105  RH  080%=      5-min Rain = 0
KCO2 211543Z 11005KT 14/11 A3034 RMK A01 T01390106  RH  080%=      5-min Rain = 0
KCO2 211544Z 10004KT 14/11 A3034 RMK A01 T01390106  RH  081%=      5-min Rain = 0
KCO2 211545Z 11004KT 14/11 A3034 RMK A01 T01400107  RH  080%=      5-min Rain = 0
KCO2 211546Z 11005KT 14/11 A3035 RMK A01 T01400107  RH  081%=      5-min Rain = 0
KCO2 211547Z 11005KT 14/11 A3034 RMK A01 T01400108  RH  081%=      5-min Rain = 0
KCO2 211548Z 10004KT 14/11 A3034 RMK A01 T01400108  RH  081%=      5-min Rain = 0
KCO2 211549Z 10005KT 14/11 A3034 RMK A01 T01400108  RH  081%=      5-min Rain = 0
KCO2 211550Z 11005KT 14/11 A3034 RMK A01 T01400108  RH  081%=      5-min Rain = 0
KCO2 211551Z 11006KT 14/11 A3034 RMK A01 T01400108  RH  081%=      5-min Rain = 0
KCO2 211552Z 10005KT 14/11 A3034 RMK A01 T01400107  RH  081%=      5-min Rain = 0
KCO2 211553Z 11005KT 14/11 A3034 RMK A01 T01410108  RH  081%=      5-min Rain = 0
KCO2 211554Z 10005KT 14/11 A3034 RMK A01 T01410108  RH  081%=      5-min Rain = 0
KCO2 211555Z 11005KT 14/11 A3034 RMK A01 T01410109  RH  081%=      5-min Rain = 0
KCO2 211556Z 11005KT 14/11 A3034 RMK A01 T01410109  RH  081%=      5-min Rain = 0
KCO2 211557Z 12006KT 14/11 A3034 RMK A01 T01410109  RH  081%=      5-min Rain = 0
KCO2 211558Z 12006KT 14/11 A3034 RMK A01 T01420109  RH  081%=      5-min Rain = 0
KCO2 211559Z 11006KT 14/11 A3034 RMK A01 T01420109  RH  081%=      5-min Rain = 0
KCO2 211600Z 12005KT 14/11 A3034 RMK A01 T01420108  RH  080%=      5-min Rain = 0
KCO2 211601Z 11005KT 14/11 A3034 RMK A01 T01410108  RH  080%=      5-min Rain = 0
KCO2 211602Z 10005KT 14/11 A3034 RMK A01 T01420108  RH  080%=      5-min Rain = 0
KCO2 211603Z 10005KT 14/11 A3034 RMK A01 T01420109  RH  080%=      5-min Rain = 0
KCO2 211604Z 09005KT 14/11 A3034 RMK A01 T01420109  RH  080%=      5-min Rain = 0
KCO2 211605Z 10005KT 14/11 A3034 RMK A01 T01430109  RH  080%=      5-min Rain = 0
KCO2 211606Z 11005KT 14/11 A3034 RMK A01 T01430110  RH  081%=      5-min Rain = 0
KCO2 211607Z 11004KT 14/11 A3034 RMK A01 T01440112  RH  081%=      5-min Rain = 0
KCO2 211608Z 12003KT 14/11 A3034 RMK A01 T01440112  RH  081%=      5-min Rain = 0
KCO2 211609Z 12003KT 15/11 A3034 RMK A01 T01450113  RH  081%=      5-min Rain = 0
KCO2 211610Z 11004KT 15/11 A3034 RMK A01 T01450113  RH  081%=      5-min Rain = 0
KCO2 211611Z 11004KT 15/11 A3034 RMK A01 T01450112  RH  081%=      5-min Rain = 0
KCO2 211612Z 11004KT 15/11 A3035 RMK A01 T01450113  RH  081%=      5-min Rain = 0
KCO2 211613Z 10004KT 15/11 A3034 RMK A01 T01450114  RH  082%=      5-min Rain = 0
KCO2 211614Z 12004KT 15/11 A3034 RMK A01 T01450114  RH  081%=      5-min Rain = 0
KCO2 211615Z 13005KT 15/11 A3034 RMK A01 T01450114  RH  082%=      5-min Rain = 0
KCO2 211616Z 11005KT 15/11 A3034 RMK A01 T01450114  RH  082%=      5-min Rain = 0
KCO2 211617Z 12005KT 15/11 A3034 RMK A01 T01450114  RH  082%=      5-min Rain = 0
KCO2 211618Z 13005KT 15/11 A3034 RMK A01 T01460114  RH  081%=      5-min Rain = 0
KCO2 211619Z 14004KT 15/11 A3034 RMK A01 T01460114  RH  081%=      5-min Rain = 0
KCO2 211620Z 14004KT 15/11 A3034 RMK A01 T01460114  RH  081%=      5-min Rain = 0
KCO2 211621Z 12003KT 15/11 A3034 RMK A01 T01460114  RH  081%=      5-min Rain = 0
KCO2 211622Z 12003KT 15/11 A3034 RMK A01 T01460114  RH  081%=      5-min Rain = 0
KCO2 211623Z 13003KT 15/12 A3034 RMK A01 T01460115  RH  082%=      5-min Rain = 0
KCO2 211624Z 11002KT 15/12 A3034 RMK A01 T01460115  RH  082%=      5-min Rain = 0
KCO2 211625Z 11002KT 15/12 A3034 RMK A01 T01450115  RH  082%=      5-min Rain = 0
KCO2 211626Z 09001KT 15/12 A3034 RMK A01 T01450115  RH  082%=      5-min Rain = 0
KCO2 211627Z 09001KT 15/12 A3035 RMK A01 T01460115  RH  082%=      5-min Rain = 0
KCO2 211628Z 09001KT 15/12 A3035 RMK A01 T01470116  RH  082%=      5-min Rain = 0
KCO2 211629Z 08002KT 15/12 A3035 RMK A01 T01480117  RH  082%=      5-min Rain = 0
KCO2 211630Z 06002KT 15/12 A3034 RMK A01 T01480117  RH  081%=      5-min Rain = 0
KCO2 211631Z 05001KT 15/12 A3034 RMK A01 T01480117  RH  082%=      5-min Rain = 0
KCO2 211632Z 08000KT 15/12 A3034 RMK A01 T01490118  RH  082%=      5-min Rain = 0
KCO2 211633Z 04001KT 15/12 A3034 RMK A01 T01490118  RH  082%=      5-min Rain = 0
KCO2 211634Z 01002KT 15/12 A3034 RMK A01 T01500118  RH  081%=      5-min Rain = 0
KCO2 211635Z 03001KT 15/12 A3034 RMK A01 T01490117  RH  081%=      5-min Rain = 0
KCO2 211636Z 04000KT 15/12 A3034 RMK A01 T01490118  RH  082%=      5-min Rain = 0
KCO2 211637Z 06001KT 15/12 A3034 RMK A01 T01490118  RH  082%=      5-min Rain = 0
KCO2 211638Z 07002KT 15/12 A3034 RMK A01 T01500120  RH  082%=      5-min Rain = 0
KCO2 211639Z 05001KT 15/12 A3034 RMK A01 T01510120  RH  082%=      5-min Rain = 0
KCO2 211640Z 03001KT 15/12 A3034 RMK A01 T01510121  RH  082%=      5-min Rain = 0
KCO2 211641Z 11000KT 15/12 A3034 RMK A01 T01520122  RH  082%=      5-min Rain = 0
KCO2 211642Z 09001KT 15/12 A3034 RMK A01 T01530123  RH  083%=      5-min Rain = 0
KCO2 211643Z 08001KT 15/12 A3033 RMK A01 T01540123  RH  082%=      5-min Rain = 0
KCO2 211644Z 08001KT 15/12 A3033 RMK A01 T01540122  RH  081%=      5-min Rain = 0
KCO2 211645Z 09000KT 15/12 A3033 RMK A01 T01540122  RH  081%=      5-min Rain = 0
KCO2 211646Z 11002KT 16/12 A3033 RMK A01 T01550123  RH  081%=      5-min Rain = 0
KCO2 211647Z 12002KT 16/12 A3033 RMK A01 T01550123  RH  081%=      5-min Rain = 0
KCO2 211648Z 13002KT 16/13 A3033 RMK A01 T01560125  RH  082%=      5-min Rain = 0
KCO2 211649Z 15001KT 16/13 A3033 RMK A01 T01570125  RH  082%=      5-min Rain = 0
KCO2 211650Z 12001KT 16/13 A3033 RMK A01 T01570125  RH  082%=      5-min Rain = 0
KCO2 211651Z 12003KT 16/13 A3033 RMK A01 T01580126  RH  082%=      5-min Rain = 0
KCO2 211652Z 11001KT 16/13 A3033 RMK A01 T01580126  RH  081%=      5-min Rain = 0
KCO2 211653Z 12000KT 16/13 A3033 RMK A01 T01590126  RH  081%=      5-min Rain = 0
KCO2 211654Z 09000KT 16/13 A3033 RMK A01 T01600126  RH  081%=      5-min Rain = 0
KCO2 211655Z 00000KT 16/13 A3033 RMK A01 T01590126  RH  080%=      5-min Rain = 0
KCO2 211656Z 00000KT 16/13 A3033 RMK A01 T01610127  RH  080%=      5-min Rain = 0
KCO2 211657Z 02000KT 16/13 A3033 RMK A01 T01620128  RH  080%=      5-min Rain = 0
KCO2 211658Z 04001KT 16/13 A3033 RMK A01 T01640127  RH  079%=      5-min Rain = 0
KCO2 211659Z 06001KT 17/13 A3033 RMK A01 T01650127  RH  078%=      5-min Rain = 0
KCO2 211700Z 09001KT 17/13 A3033 RMK A01 T01650127  RH  078%=      5-min Rain = 0
KCO2 211701Z 10001KT 17/13 A3033 RMK A01 T01650127  RH  078%=      5-min Rain = 0
KCO2 211702Z 10002KT 17/13 A3033 RMK A01 T01660127  RH  078%=      5-min Rain = 0
KCO2 211703Z 10002KT 17/13 A3033 RMK A01 T01670127  RH  078%=      5-min Rain = 0
KCO2 211704Z 11002KT 17/13 A3033 RMK A01 T01670128  RH  078%=      5-min Rain = 0
KCO2 211705Z 11002KT 17/13 A3033 RMK A01 T01690128  RH  077%=      5-min Rain = 0
KCO2 211706Z 14002KT 17/13 A3032 RMK A01 T01710129  RH  076%=      5-min Rain = 0
KCO2 211707Z 11003KT 17/13 A3032 RMK A01 T01720129  RH  076%=      5-min Rain = 0
KCO2 211708Z 11003KT 17/13 A3032 RMK A01 T01720129  RH  076%=      5-min Rain = 0
KCO2 211709Z 13003KT 17/13 A3032 RMK A01 T01720131  RH  077%=      5-min Rain = 0
KCO2 211710Z 14003KT 17/13 A3032 RMK A01 T01720131  RH  077%=      5-min Rain = 0
KCO2 211711Z 11004KT 17/13 A3032 RMK A01 T01730131  RH  076%=      5-min Rain = 0
KCO2 211712Z 12004KT 17/13 A3032 RMK A01 T01730130  RH  076%=      5-min Rain = 0
KCO2 211713Z 14002KT 17/13 A3032 RMK A01 T01730130  RH  076%=      5-min Rain = 0
KCO2 211714Z 14003KT 17/13 A3032 RMK A01 T01730130  RH  076%=      5-min Rain = 0
KCO2 211715Z 15004KT 17/13 A3032 RMK A01 T01740130  RH  075%=      5-min Rain = 0
KCO2 211716Z 16002KT 17/13 A3032 RMK A01 T01740130  RH  075%=      5-min Rain = 0
KCO2 211717Z 18002KT 18/13 A3032 RMK A01 T01750131  RH  075%=      5-min Rain = 0
KCO2 211718Z 20002KT 18/13 A3032 RMK A01 T01750131  RH  075%=      5-min Rain = 0
KCO2 211719Z 16002KT 18/13 A3032 RMK A01 T01750131  RH  075%=      5-min Rain = 0
KCO2 211720Z 17004KT 18/13 A3032 RMK A01 T01770131  RH  074%=      5-min Rain = 0
KCO2 211721Z 18003KT 18/13 A3032 RMK A01 T01790132  RH  074%=      5-min Rain = 0
KCO2 211722Z 19003KT 18/13 A3032 RMK A01 T01800133  RH  074%=      5-min Rain = 0
KCO2 211723Z 18002KT 18/13 A3032 RMK A01 T01790132  RH  074%=      5-min Rain = 0
KCO2 211724Z 17003KT 18/13 A3032 RMK A01 T01780132  RH  075%=      5-min Rain = 0
KCO2 211725Z 18004KT 18/13 A3032 RMK A01 T01790134  RH  075%=      5-min Rain = 0
KCO2 211726Z 20003KT 18/13 A3032 RMK A01 T01820133  RH  073%=      5-min Rain = 0
KCO2 211727Z 15004KT 18/13 A3032 RMK A01 T01820132  RH  073%=      5-min Rain = 0
KCO2 211728Z 12005KT 18/13 A3032 RMK A01 T01820133  RH  073%=      5-min Rain = 0
KCO2 211729Z 13005KT 18/13 A3032 RMK A01 T01830133  RH  073%=      5-min Rain = 0
KCO2 211730Z 15004KT 18/13 A3031 RMK A01 T01840134  RH  072%=      5-min Rain = 0
KCO2 211731Z 20004KT 19/14 A3031 RMK A01 T01860135  RH  072%=      5-min Rain = 0
KCO2 211732Z 15006KT 19/13 A3031 RMK A01 T01870133  RH  071%=      5-min Rain = 0
KCO2 211733Z 14006KT 19/13 A3031 RMK A01 T01870133  RH  071%=      5-min Rain = 0
KCO2 211734Z 14005KT 19/13 A3031 RMK A01 T01850133  RH  072%=      5-min Rain = 0
KCO2 211735Z 15006KT 19/13 A3031 RMK A01 T01870133  RH  071%=      5-min Rain = 0
KCO2 211736Z 16004KT 19/13 A3031 RMK A01 T01860133  RH  071%=      5-min Rain = 0
KCO2 211737Z 14002KT 19/13 A3031 RMK A01 T01880134  RH  071%=      5-min Rain = 0
KCO2 211738Z 16003KT 19/13 A3031 RMK A01 T01900134  RH  070%=      5-min Rain = 0
KCO2 211739Z 13005KT 19/13 A3031 RMK A01 T01910133  RH  069%=      5-min Rain = 0
KCO2 211740Z 14006KT 19/13 A3031 RMK A01 T01910133  RH  069%=      5-min Rain = 0
KCO2 211741Z 17006KT 19/13 A3031 RMK A01 T01910133  RH  069%=      5-min Rain = 0
KCO2 211742Z 16005KT 19/13 A3031 RMK A01 T01900133  RH  069%=      5-min Rain = 0
KCO2 211743Z 14005KT 19/13 A3031 RMK A01 T01890133  RH  070%=      5-min Rain = 0
KCO2 211744Z 15004KT 19/13 A3031 RMK A01 T01890133  RH  070%=      5-min Rain = 0
KCO2 211745Z 15007KT 19/13 A3031 RMK A01 T01870132  RH  070%=      5-min Rain = 0
KCO2 211746Z 15006KT 19/13 A3031 RMK A01 T01850132  RH  071%=      5-min Rain = 0
KCO2 211747Z 13004KT 18/13 A3031 RMK A01 T01840132  RH  072%=      5-min Rain = 0
KCO2 211748Z 13005KT 18/13 A3031 RMK A01 T01830132  RH  072%=      5-min Rain = 0
KCO2 211749Z 12005KT 18/13 A303 RMK A01 T01820132  RH  072%=      5-min Rain = 0
KCO2 211750Z 13007KT 18/13 A303 RMK A01 T01830132  RH  072%=      5-min Rain = 0
KCO2 211751Z 14005KT 18/13 A303 RMK A01 T01840133  RH  072%=      5-min Rain = 0
KCO2 211752Z 14004KT 19/13 A303 RMK A01 T01860133  RH  071%=      5-min Rain = 0
KCO2 211753Z 15002KT 19/13 A303 RMK A01 T01860133  RH  071%=      5-min Rain = 0
KCO2 211754Z 13002G7KT 19/13 A303 RMK A01 T01880133  RH  070%=      5-min Rain = 0
KCO2 211755Z 14004KT 19/14 A303 RMK A01 T01920136  RH  070%=      5-min Rain = 0
KCO2 211756Z 19005KT 20/14 A303 RMK A01 T01960135  RH  068%=      5-min Rain = 0
KCO2 211757Z 20009KT 20/14 A303 RMK A01 T01990135  RH  067%=      5-min Rain = 0
KCO2 211758Z 19006KT 20/14 A303 RMK A01 T02010135  RH  066%=      5-min Rain = 0
KCO2 211759Z 19006KT 20/13 A303 RMK A01 T02030134  RH  064%=      5-min Rain = 0
KCO2 211800Z 17006KT 20/13 A303 RMK A01 T02040134  RH  064%=      5-min Rain = 0
KCO2 211801Z 17006KT 20/13 A303 RMK A01 T02040133  RH  063%=      5-min Rain = 0
KCO2 211802Z 17006KT 20/13 A303 RMK A01 T02030133  RH  064%=      5-min Rain = 0
KCO2 211803Z 17005KT 20/13 A303 RMK A01 T02030133  RH  064%=      5-min Rain = 0
KCO2 211804Z 18007KT 20/13 A303 RMK A01 T02010132  RH  065%=      5-min Rain = 0
KCO2 211805Z 18007KT 20/13 A3029 RMK A01 T02010132  RH  065%=      5-min Rain = 0
KCO2 211806Z 18007KT 20/13 A3029 RMK A01 T01990132  RH  065%=      5-min Rain = 0
KCO2 211807Z 18006KT 20/13 A3029 RMK A01 T02000132  RH  065%=      5-min Rain = 0
KCO2 211808Z 18006KT 20/13 A3029 RMK A01 T02000132  RH  065%=      5-min Rain = 0
KCO2 211809Z 18007KT 20/13 A3029 RMK A01 T01990131  RH  065%=      5-min Rain = 0
KCO2 211810Z 19006KT 20/13 A3029 RMK A01 T01990132  RH  065%=      5-min Rain = 0
KCO2 211811Z 19004KT 20/13 A3029 RMK A01 T02000132  RH  065%=      5-min Rain = 0
KCO2 211812Z 17006KT 20/13 A3029 RMK A01 T02010134  RH  065%=      5-min Rain = 0
KCO2 211813Z 13008KT 20/13 A3029 RMK A01 T02040133  RH  064%=      5-min Rain = 0
KCO2 211814Z 15006KT 21/13 A3029 RMK A01 T02050134  RH  063%=      5-min Rain = 0
KCO2 211815Z 17006KT 21/13 A3029 RMK A01 T02060132  RH  062%=      5-min Rain = 0
KCO2 211816Z 18009KT 21/13 A3029 RMK A01 T02060132  RH  062%=      5-min Rain = 0
KCO2 211817Z 17007KT 21/13 A3029 RMK A01 T02050132  RH  063%=      5-min Rain = 0
KCO2 211818Z 19006KT 20/13 A3029 RMK A01 T02040132  RH  063%=      5-min Rain = 0
KCO2 211819Z 21007KT 20/13 A3028 RMK A01 T02030132  RH  064%=      5-min Rain = 0
KCO2 211820Z 21004KT 20/13 A3028 RMK A01 T02020132  RH  064%=      5-min Rain = 0
KCO2 211821Z 17005KT 20/13 A3028 RMK A01 T02020132  RH  064%=      5-min Rain = 0
KCO2 211822Z 18007KT 20/13 A3028 RMK A01 T02040132  RH  064%=      5-min Rain = 0
KCO2 211823Z 19007KT 20/13 A3029 RMK A01 T02040132  RH  063%=      5-min Rain = 0
KCO2 211824Z 20009KT 20/13 A3028 RMK A01 T02040131  RH  063%=      5-min Rain = 0
KCO2 211825Z 20008KT 21/13 A3028 RMK A01 T02050131  RH  062%=      5-min Rain = 0
KCO2 211826Z 16008KT 21/13 A3029 RMK A01 T02050131  RH  063%=      5-min Rain = 0
KCO2 211827Z 17006KT 21/13 A3029 RMK A01 T02050132  RH  063%=      5-min Rain = 0
KCO2 211828Z 17006KT 21/13 A3029 RMK A01 T02050131  RH  063%=      5-min Rain = 0
KCO2 211829Z 16005KT 21/13 A3029 RMK A01 T02050131  RH  062%=      5-min Rain = 0
KCO2 211830Z 14005KT 21/13 A3029 RMK A01 T02050132  RH  063%=      5-min Rain = 0
KCO2 211831Z 15007KT 20/13 A3028 RMK A01 T02040132  RH  063%=      5-min Rain = 0
KCO2 211832Z 14007KT 20/13 A3028 RMK A01 T02040132  RH  063%=      5-min Rain = 0
KCO2 211833Z 17006KT 20/13 A3028 RMK A01 T02040132  RH  063%=      5-min Rain = 0
KCO2 211834Z 18007KT 21/13 A3028 RMK A01 T02050132  RH  063%=      5-min Rain = 0
KCO2 211835Z 18008KT 20/13 A3028 RMK A01 T02040132  RH  063%=      5-min Rain = 0
KCO2 211836Z 18007KT 20/13 A3028 RMK A01 T02030132  RH  064%=      5-min Rain = 0
KCO2 211837Z 19009KT 20/13 A3028 RMK A01 T02030132  RH  064%=      5-min Rain = 0
KCO2 211838Z 19007KT 20/13 A3028 RMK A01 T02040131  RH  063%=      5-min Rain = 0
KCO2 211839Z 18007KT 21/13 A3028 RMK A01 T02070132  RH  062%=      5-min Rain = 0
KCO2 211840Z 18009KT 21/13 A3027 RMK A01 T02090132  RH  061%=      5-min Rain = 0
KCO2 211841Z 16008KT 21/13 A3027 RMK A01 T02110133  RH  061%=      5-min Rain = 0
KCO2 211842Z 16008KT 21/13 A3027 RMK A01 T02140132  RH  060%=      5-min Rain = 0
KCO2 211843Z 17007KT 21/13 A3027 RMK A01 T02130132  RH  060%=      5-min Rain = 0
KCO2 211844Z 17007KT 21/13 A3027 RMK A01 T02120133  RH  060%=      5-min Rain = 0
KCO2 211845Z 18009KT 21/13 A3027 RMK A01 T02130133  RH  060%=      5-min Rain = 0
KCO2 211846Z 18009KT 22/13 A3027 RMK A01 T02150132  RH  059%=      5-min Rain = 0
KCO2 211847Z 18006KT 22/13 A3026 RMK A01 T02150130  RH  058%=      5-min Rain = 0
KCO2 211848Z 18004KT 21/13 A3026 RMK A01 T02130130  RH  059%=      5-min Rain = 0
KCO2 211849Z 21004KT 21/13 A3026 RMK A01 T02130131  RH  059%=      5-min Rain = 0
KCO2 211850Z 18007KT 22/13 A3026 RMK A01 T02150133  RH  060%=      5-min Rain = 0
KCO2 211851Z 19010KT 22/13 A3026 RMK A01 T02180131  RH  058%=      5-min Rain = 0
KCO2 211852Z 19010KT 22/13 A3026 RMK A01 T02190128  RH  056%=      5-min Rain = 0
KCO2 211853Z 18009KT 22/13 A3026 RMK A01 T02170126  RH  056%=      5-min Rain = 0
KCO2 211854Z 18009KT 21/13 A3026 RMK A01 T02140127  RH  057%=      5-min Rain = 0
KCO2 211855Z 18007KT 21/13 A3026 RMK A01 T02140127  RH  057%=      5-min Rain = 0
KCO2 211856Z 18009G17KT 22/13 A3025 RMK A01 T02170128  RH  057%=      5-min Rain = 0
KCO2 211857Z 16010KT 22/13 A3025 RMK A01 T02180127  RH  056%=      5-min Rain = 0
KCO2 211858Z 17007KT 22/13 A3026 RMK A01 T02160125  RH  056%=      5-min Rain = 0
KCO2 211859Z 19008KT 21/13 A3025 RMK A01 T02140126  RH  057%=      5-min Rain = 0
KCO2 211900Z 19005KT 21/13 A3026 RMK A01 T02140127  RH  058%=      5-min Rain = 0
KCO2 211901Z 16005KT 22/13 A3026 RMK A01 T02170129  RH  057%=      5-min Rain = 0
KCO2 211902Z 17005KT 22/13 A3025 RMK A01 T02180128  RH  057%=      5-min Rain = 0
KCO2 211903Z 19006KT 22/13 A3025 RMK A01 T02180129  RH  057%=      5-min Rain = 0
KCO2 211904Z 19007KT 22/13 A3025 RMK A01 T02210130  RH  056%=      5-min Rain = 0
KCO2 211905Z 20006KT 22/13 A3025 RMK A01 T02200129  RH  056%=      5-min Rain = 0
KCO2 211906Z 17005KT 22/13 A3025 RMK A01 T02170128  RH  057%=      5-min Rain = 0
KCO2 211907Z 17006KT 22/13 A3025 RMK A01 T02160130  RH  058%=      5-min Rain = 0
KCO2 211908Z 18008KT 22/13 A3025 RMK A01 T02180130  RH  058%=      5-min Rain = 0
KCO2 211909Z 19007KT 22/13 A3025 RMK A01 T02180131  RH  058%=      5-min Rain = 0
KCO2 211910Z 17008KT 22/13 A3025 RMK A01 T02170129  RH  057%=      5-min Rain = 0
KCO2 211911Z 16010KT 22/13 A3025 RMK A01 T02150126  RH  057%=      5-min Rain = 0
KCO2 211912Z 15009KT 21/12 A3025 RMK A01 T02140124  RH  057%=      5-min Rain = 0
KCO2 211913Z 17008KT 21/13 A3025 RMK A01 T02130125  RH  057%=      5-min Rain = 0
KCO2 211914Z 17008KT 21/13 A3025 RMK A01 T02120125  RH  057%=      5-min Rain = 0
KCO2 211915Z 17009KT 21/13 A3025 RMK A01 T02110125  RH  058%=      5-min Rain = 0
KCO2 211916Z 19006G11KT 21/13 A3025 RMK A01 T02110125  RH  058%=      5-min Rain = 0
KCO2 211917Z 19008KT 21/13 A3025 RMK A01 T02120126  RH  058%=      5-min Rain = 0
KCO2 211918Z 19006KT 22/13 A3025 RMK A01 T02160128  RH  057%=      5-min Rain = 0
KCO2 211919Z 20008KT 22/13 A3025 RMK A01 T02210129  RH  056%=      5-min Rain = 0
KCO2 211920Z 21008KT 22/13 A3024 RMK A01 T02240128  RH  055%=      5-min Rain = 0
KCO2 211921Z 19007KT 22/13 A3024 RMK A01 T02240128  RH  055%=      5-min Rain = 0
KCO2 211922Z 16004KT 23/13 A3024 RMK A01 T02250128  RH  054%=      5-min Rain = 0
KCO2 211923Z 17005KT 23/13 A3024 RMK A01 T02270130  RH  054%=      5-min Rain = 0
KCO2 211924Z 17006KT 23/13 A3024 RMK A01 T02300128  RH  053%=      5-min Rain = 0
KCO2 211925Z 17006KT 23/13 A3024 RMK A01 T02310129  RH  052%=      5-min Rain = 0
KCO2 211926Z 15009G15KT 23/13 A3024 RMK A01 T02320127  RH  052%=      5-min Rain = 0
KCO2 211927Z 21007G12KT 23/13 A3024 RMK A01 T02310128  RH  052%=      5-min Rain = 0
KCO2 211928Z 21006KT 23/13 A3024 RMK A01 T02290128  RH  053%=      5-min Rain = 0
KCO2 211929Z 19005KT 22/13 A3024 RMK A01 T02240126  RH  054%=      5-min Rain = 0
KCO2 211930Z 16007KT 22/13 A3024 RMK A01 T02210125  RH  054%=      5-min Rain = 0
KCO2 211931Z 16011KT 22/12 A3024 RMK A01 T02220123  RH  053%=      5-min Rain = 0
KCO2 211932Z 16010KT 23/12 A3023 RMK A01 T02250123  RH  052%=      5-min Rain = 0
KCO2 211933Z 16010KT 23/12 A3023 RMK A01 T02280122  RH  051%=      5-min Rain = 0
KCO2 211934Z 16010KT 23/12 A3023 RMK A01 T02290122  RH  051%=      5-min Rain = 0
KCO2 211935Z 18009G14KT 23/12 A3023 RMK A01 T02290123  RH  051%=      5-min Rain = 0
KCO2 211936Z 17011KT 23/12 A3023 RMK A01 T02280121  RH  051%=      5-min Rain = 0
KCO2 211937Z 18008KT 23/12 A3024 RMK A01 T02260120  RH  051%=      5-min Rain = 0
KCO2 211938Z 18011KT 23/12 A3023 RMK A01 T02270121  RH  051%=      5-min Rain = 0
KCO2 211939Z 19010KT 23/12 A3023 RMK A01 T02260122  RH  052%=      5-min Rain = 0
KCO2 211940Z 19009KT 22/12 A3023 RMK A01 T02230122  RH  053%=      5-min Rain = 0
KCO2 211941Z 19010KT 22/12 A3023 RMK A01 T02210122  RH  053%=      5-min Rain = 0
KCO2 211942Z 19009KT 22/12 A3023 RMK A01 T02190121  RH  054%=      5-min Rain = 0
KCO2 211943Z 19008KT 22/12 A3023 RMK A01 T02180123  RH  055%=      5-min Rain = 0
KCO2 211944Z 19008KT 22/12 A3023 RMK A01 T02190123  RH  055%=      5-min Rain = 0
KCO2 211945Z 19008KT 22/12 A3023 RMK A01 T02180123  RH  055%=      5-min Rain = 0
KCO2 211946Z 18008KT 22/12 A3023 RMK A01 T02170123  RH  055%=      5-min Rain = 0
KCO2 211947Z 17007KT 22/12 A3023 RMK A01 T02190124  RH  055%=      5-min Rain = 0
KCO2 211948Z 19010KT 22/13 A3023 RMK A01 T02220125  RH  054%=      5-min Rain = 0
KCO2 211949Z 19007KT 23/13 A3023 RMK A01 T02260125  RH  053%=      5-min Rain = 0
KCO2 211950Z 17008KT 23/13 A3023 RMK A01 T02290125  RH  052%=      5-min Rain = 0
KCO2 211951Z 17007KT 23/12 A3023 RMK A01 T02280123  RH  051%=      5-min Rain = 0
KCO2 211952Z 17005KT 22/12 A3023 RMK A01 T02240123  RH  053%=      5-min Rain = 0
KCO2 211953Z 19005KT 22/12 A3023 RMK A01 T02220123  RH  053%=      5-min Rain = 0
KCO2 211954Z 18008KT 22/13 A3023 RMK A01 T02240125  RH  053%=      5-min Rain = 0
KCO2 211955Z 15005KT 23/13 A3023 RMK A01 T02260125  RH  053%=      5-min Rain = 0
KCO2 211956Z 18006KT 23/12 A3023 RMK A01 T02270124  RH  052%=      5-min Rain = 0
KCO2 211957Z 19006KT 23/13 A3023 RMK A01 T02270125  RH  052%=      5-min Rain = 0
KCO2 211958Z 18007KT 22/12 A3023 RMK A01 T02240124  RH  053%=      5-min Rain = 0
KCO2 211959Z 18006KT 22/12 A3023 RMK A01 T02220124  RH  054%=      5-min Rain = 0
KCO2 212000Z 20006KT 22/12 A3023 RMK A01 T02220122  RH  053%=      5-min Rain = 0
KCO2 212001Z 19007KT 22/12 A3023 RMK A01 T02210122  RH  053%=      5-min Rain = 0
KCO2 212002Z 16005KT 22/12 A3022 RMK A01 T02210121  RH  053%=      5-min Rain = 0
KCO2 212003Z 20003KT 22/12 A3022 RMK A01 T02200122  RH  054%=      5-min Rain = 0
KCO2 212004Z 20005KT 22/12 A3022 RMK A01 T02200122  RH  054%=      5-min Rain = 0
KCO2 212005Z 19005KT 22/12 A3022 RMK A01 T02210122  RH  053%=      5-min Rain = 0
KCO2 212006Z 18005KT 22/12 A3022 RMK A01 T02210123  RH  054%=      5-min Rain = 0
KCO2 212007Z 19005KT 22/12 A3022 RMK A01 T02210123  RH  054%=      5-min Rain = 0
KCO2 212008Z 14007KT 22/12 A3022 RMK A01 T02230124  RH  053%=      5-min Rain = 0
KCO2 212009Z 15009KT 23/13 A3022 RMK A01 T02260126  RH  053%=      5-min Rain = 0
KCO2 212010Z 14006KT 23/13 A3022 RMK A01 T02280126  RH  052%=      5-min Rain = 0
KCO2 212011Z 13008KT 23/13 A3022 RMK A01 T02280126  RH  053%=      5-min Rain = 0
KCO2 212012Z 14008KT 23/13 A3022 RMK A01 T02300125  RH  052%=      5-min Rain = 0
KCO2 212013Z 13006KT 23/13 A3022 RMK A01 T02320125  RH  051%=      5-min Rain = 0
KCO2 212014Z 15007KT 23/12 A3022 RMK A01 T02300124  RH  051%=      5-min Rain = 0
KCO2 212015Z 15008KT 23/12 A3022 RMK A01 T02290123  RH  051%=      5-min Rain = 0
KCO2 212016Z 15008KT 23/12 A3022 RMK A01 T02270123  RH  052%=      5-min Rain = 0
KCO2 212017Z 14007KT 23/12 A3022 RMK A01 T02270123  RH  052%=      5-min Rain = 0
KCO2 212018Z 12008KT 23/12 A3022 RMK A01 T02290123  RH  051%=      5-min Rain = 0
KCO2 212019Z 11007KT 23/12 A3022 RMK A01 T02330123  RH  050%=      5-min Rain = 0
KCO2 212020Z 10007KT 24/12 A3021 RMK A01 T02350122  RH  049%=      5-min Rain = 0
KCO2 212021Z 11006KT 23/12 A3021 RMK A01 T02340121  RH  049%=      5-min Rain = 0
KCO2 212022Z 12007KT 23/12 A3021 RMK A01 T02340121  RH  049%=      5-min Rain = 0
KCO2 212023Z 13010KT 24/12 A3021 RMK A01 T02350120  RH  048%=      5-min Rain = 0
KCO2 212024Z 14008KT 24/12 A3021 RMK A01 T02360119  RH  048%=      5-min Rain = 0
KCO2 212025Z 13009KT 23/12 A3021 RMK A01 T02330118  RH  048%=      5-min Rain = 0
KCO2 212026Z 13008KT 23/12 A3021 RMK A01 T02310117  RH  049%=      5-min Rain = 0
KCO2 212027Z 15007KT 23/12 A3021 RMK A01 T02300117  RH  049%=      5-min Rain = 0
KCO2 212028Z 14009KT 23/12 A3021 RMK A01 T02300116  RH  049%=      5-min Rain = 0
KCO2 212029Z 14012KT 23/12 A3021 RMK A01 T02300115  RH  048%=      5-min Rain = 0
KCO2 212030Z 15010KT 23/12 A3021 RMK A01 T02290117  RH  049%=      5-min Rain = 0
KCO2 212031Z 15012KT 23/12 A3021 RMK A01 T02290117  RH  049%=      5-min Rain = 0
KCO2 212032Z 14010KT 23/12 A3021 RMK A01 T02290117  RH  049%=      5-min Rain = 0
KCO2 212033Z 15010KT 23/12 A3021 RMK A01 T02300117  RH  049%=      5-min Rain = 0
KCO2 212034Z 16011KT 23/12 A3021 RMK A01 T02290117  RH  049%=      5-min Rain = 0
KCO2 212035Z 16009KT 23/12 A3021 RMK A01 T02280117  RH  050%=      5-min Rain = 0
KCO2 212036Z 15010KT 23/12 A3021 RMK A01 T02270117  RH  050%=      5-min Rain = 0
KCO2 212037Z 16012KT 23/12 A302 RMK A01 T02280117  RH  049%=      5-min Rain = 0
KCO2 212038Z 16012KT 23/12 A302 RMK A01 T02290117  RH  049%=      5-min Rain = 0
KCO2 212039Z 16010KT 23/12 A302 RMK A01 T02300118  RH  049%=      5-min Rain = 0
KCO2 212040Z 16010KT 23/12 A302 RMK A01 T02310118  RH  049%=      5-min Rain = 0
KCO2 212041Z 17008KT 23/12 A302 RMK A01 T02310117  RH  049%=      5-min Rain = 0
KCO2 212042Z 13007KT 23/12 A302 RMK A01 T02300118  RH  049%=      5-min Rain = 0
KCO2 212043Z 13008KT 23/12 A302 RMK A01 T02290117  RH  049%=      5-min Rain = 0
KCO2 212044Z 15007KT 23/12 A302 RMK A01 T02270116  RH  050%=      5-min Rain = 0
KCO2 212045Z 16007KT 23/12 A302 RMK A01 T02250116  RH  050%=      5-min Rain = 0
KCO2 212046Z 16005KT 23/12 A302 RMK A01 T02250116  RH  050%=      5-min Rain = 0
KCO2 212047Z 15006KT 23/12 A302 RMK A01 T02280118  RH  050%=      5-min Rain = 0
KCO2 212048Z 14008KT 23/12 A302 RMK A01 T02330119  RH  049%=      5-min Rain = 0
KCO2 212049Z 14007KT 24/12 A302 RMK A01 T02370120  RH  048%=      5-min Rain = 0
KCO2 212050Z 14008KT 24/12 A302 RMK A01 T02380119  RH  047%=      5-min Rain = 0
KCO2 212051Z 16007KT 24/12 A302 RMK A01 T02370119  RH  047%=      5-min Rain = 0
KCO2 212052Z 15009KT 24/12 A302 RMK A01 T02360118  RH  047%=      5-min Rain = 0
KCO2 212053Z 15006KT 23/12 A302 RMK A01 T02340116  RH  048%=      5-min Rain = 0
KCO2 212054Z 14003KT 23/12 A302 RMK A01 T02320117  RH  048%=      5-min Rain = 0
KCO2 212055Z 16004KT 23/12 A302 RMK A01 T02330118  RH  048%=      5-min Rain = 0
KCO2 212056Z 16007KT 24/12 A302 RMK A01 T02380120  RH  048%=      5-min Rain = 0
KCO2 212057Z 16007KT 24/12 A302 RMK A01 T02400118  RH  046%=      5-min Rain = 0
KCO2 212058Z 16005KT 24/12 A302 RMK A01 T02410119  RH  046%=      5-min Rain = 0
KCO2 212059Z 14008KT 25/12 A302 RMK A01 T02450119  RH  045%=      5-min Rain = 0
KCO2 212100Z 14007KT 25/12 A3019 RMK A01 T02460117  RH  044%=      5-min Rain = 0
KCO2 212101Z 15007KT 24/12 A3019 RMK A01 T02440116  RH  045%=      5-min Rain = 0
KCO2 212102Z 13006KT 24/12 A3019 RMK A01 T02410116  RH  045%=      5-min Rain = 0
KCO2 212103Z 12010KT 24/12 A3019 RMK A01 T02420115  RH  045%=      5-min Rain = 0
KCO2 212104Z 14009KT 24/11 A3019 RMK A01 T02410114  RH  045%=      5-min Rain = 0
KCO2 212105Z 16009KT 24/12 A3019 RMK A01 T02420115  RH  045%=      5-min Rain = 0
KCO2 212106Z 17009KT 24/12 A3019 RMK A01 T02430115  RH  045%=      5-min Rain = 0
KCO2 212107Z 14009G14KT 24/12 A3019 RMK A01 T02430115  RH  045%=      5-min Rain = 0
KCO2 212108Z 13011KT 24/11 A3019 RMK A01 T02430113  RH  044%=      5-min Rain = 0
KCO2 212109Z 14012KT 24/11 A3019 RMK A01 T02400112  RH  044%=      5-min Rain = 0
KCO2 212110Z 13011KT 24/11 A3019 RMK A01 T02370111  RH  045%=      5-min Rain = 0
KCO2 212111Z 13008KT 24/11 A3019 RMK A01 T02360112  RH  046%=      5-min Rain = 0
KCO2 212112Z 14007KT 24/11 A3019 RMK A01 T02390113  RH  045%=      5-min Rain = 0
KCO2 212113Z 14007KT 24/11 A3019 RMK A01 T02430113  RH  044%=      5-min Rain = 0
KCO2 212114Z 16006KT 25/11 A3019 RMK A01 T02460114  RH  044%=      5-min Rain = 0
KCO2 212115Z 16010KT 25/11 A3019 RMK A01 T02480114  RH  043%=      5-min Rain = 0
KCO2 212116Z 16011KT 25/11 A3019 RMK A01 T02470113  RH  043%=      5-min Rain = 0
KCO2 212117Z 17010KT 25/11 A3019 RMK A01 T02460112  RH  043%=      5-min Rain = 0
KCO2 212118Z 18009KT 25/11 A3019 RMK A01 T02450111  RH  043%=      5-min Rain = 0
KCO2 212119Z 18008KT 25/11 A3019 RMK A01 T02450111  RH  043%=      5-min Rain = 0
KCO2 212120Z 16009KT 25/11 A3019 RMK A01 T02450112  RH  043%=      5-min Rain = 0
KCO2 212121Z 15012KT 25/11 A3019 RMK A01 T02460111  RH  043%=      5-min Rain = 0
KCO2 212122Z 15009KT 25/11 A3019 RMK A01 T02450111  RH  043%=      5-min Rain = 0
KCO2 212123Z 16009KT 24/11 A3019 RMK A01 T02440110  RH  043%=      5-min Rain = 0
KCO2 212124Z 16007KT 24/11 A3019 RMK A01 T02430110  RH  043%=      5-min Rain = 0
KCO2 212125Z 15008KT 24/11 A3019 RMK A01 T02430111  RH  044%=      5-min Rain = 0
KCO2 212126Z 15009KT 24/11 A3019 RMK A01 T02440111  RH  043%=      5-min Rain = 0
KCO2 212127Z 15009KT 24/11 A3019 RMK A01 T02440112  RH  043%=      5-min Rain = 0
KCO2 212128Z 16009KT 25/11 A3019 RMK A01 T02450112  RH  043%=      5-min Rain = 0
KCO2 212129Z 18007KT 24/11 A3019 RMK A01 T02430112  RH  044%=      5-min Rain = 0
KCO2 212130Z 16005KT 24/11 A3019 RMK A01 T02420112  RH  044%=      5-min Rain = 0
KCO2 212131Z 19004KT 24/11 A3019 RMK A01 T02430113  RH  044%=      5-min Rain = 0
KCO2 212132Z 19005KT 24/11 A3019 RMK A01 T02440113  RH  044%=      5-min Rain = 0
KCO2 212133Z 18004KT 25/11 A3019 RMK A01 T02450112  RH  043%=      5-min Rain = 0
KCO2 212134Z 16007KT 25/11 A3018 RMK A01 T02450113  RH  043%=      5-min Rain = 0
KCO2 212135Z 13010KT 25/11 A3019 RMK A01 T02470113  RH  043%=      5-min Rain = 0
KCO2 212136Z 13012KT 25/11 A3018 RMK A01 T02470113  RH  043%=      5-min Rain = 0
KCO2 212137Z 15013KT 25/11 A3018 RMK A01 T02470113  RH  043%=      5-min Rain = 0
KCO2 212138Z 17012KT 25/11 A3018 RMK A01 T02460113  RH  043%=      5-min Rain = 0
KCO2 212139Z 15011KT 25/11 A3018 RMK A01 T02460113  RH  043%=      5-min Rain = 0
KCO2 212140Z 15014KT 25/11 A3018 RMK A01 T02460113  RH  043%=      5-min Rain = 0
KCO2 212141Z 15014KT 25/11 A3018 RMK A01 T02460112  RH  043%=      5-min Rain = 0
KCO2 212142Z 14012KT 24/11 A3018 RMK A01 T02440112  RH  044%=      5-min Rain = 0
KCO2 212143Z 14013KT 24/11 A3018 RMK A01 T02440113  RH  044%=      5-min Rain = 0
KCO2 212144Z 13012KT 24/11 A3018 RMK A01 T02440113  RH  044%=      5-min Rain = 0
KCO2 212145Z 15009KT 24/11 A3018 RMK A01 T02420113  RH  044%=      5-min Rain = 0
KCO2 212146Z 13010KT 24/11 A3018 RMK A01 T02420113  RH  044%=      5-min Rain = 0
KCO2 212147Z 14008KT 24/11 A3018 RMK A01 T02400113  RH  045%=      5-min Rain = 0
KCO2 212148Z 13010KT 24/11 A3018 RMK A01 T02390113  RH  045%=      5-min Rain = 0
KCO2 212149Z 14010KT 24/11 A3018 RMK A01 T02400112  RH  045%=      5-min Rain = 0
KCO2 212150Z 13011KT 24/11 A3018 RMK A01 T02410111  RH  044%=      5-min Rain = 0
KCO2 212151Z 13010KT 24/11 A3018 RMK A01 T02410110  RH  044%=      5-min Rain = 0
KCO2 212152Z 13011KT 24/11 A3018 RMK A01 T02410110  RH  044%=      5-min Rain = 0
KCO2 212153Z 15012KT 24/11 A3018 RMK A01 T02400110  RH  044%=      5-min Rain = 0
KCO2 212154Z 15009KT 24/11 A3018 RMK A01 T02410109  RH  044%=      5-min Rain = 0
KCO2 212155Z 15009KT 24/11 A3018 RMK A01 T02410108  RH  043%=      5-min Rain = 0
KCO2 212156Z 16007KT 24/11 A3018 RMK A01 T02420107  RH  043%=      5-min Rain = 0
KCO2 212157Z 15011KT 24/11 A3018 RMK A01 T02430107  RH  042%=      5-min Rain = 0
KCO2 212158Z 15012KT 24/11 A3018 RMK A01 T02440107  RH  042%=      5-min Rain = 0
KCO2 212159Z 14013KT 24/11 A3018 RMK A01 T02440105  RH  042%=      5-min Rain = 0
KCO2 212200Z 14010KT 24/10 A3018 RMK A01 T02430104  RH  042%=      5-min Rain = 0
KCO2 212201Z 16010KT 24/11 A3018 RMK A01 T02430105  RH  042%=      5-min Rain = 0
KCO2 212202Z 15009KT 24/11 A3018 RMK A01 T02440105  RH  042%=      5-min Rain = 0
KCO2 212203Z 15009KT 25/11 A3018 RMK A01 T02450106  RH  041%=      5-min Rain = 0
KCO2 212204Z 14009KT 24/11 A3018 RMK A01 T02440105  RH  041%=      5-min Rain = 0
KCO2 212205Z 15010KT 24/11 A3018 RMK A01 T02430105  RH  042%=      5-min Rain = 0
KCO2 212206Z 15010KT 24/10 A3018 RMK A01 T02420104  RH  042%=      5-min Rain = 0
KCO2 212207Z 15010KT 24/10 A3018 RMK A01 T02410104  RH  042%=      5-min Rain = 0
KCO2 212208Z 17010KT 24/10 A3018 RMK A01 T02400104  RH  042%=      5-min Rain = 0
KCO2 212209Z 17012KT 24/10 A3018 RMK A01 T02410104  RH  042%=      5-min Rain = 0
KCO2 212210Z 18009KT 24/10 A3018 RMK A01 T02410103  RH  042%=      5-min Rain = 0
KCO2 212211Z 18009KT 24/10 A3018 RMK A01 T02400103  RH  042%=      5-min Rain = 0
KCO2 212212Z 18009KT 24/10 A3018 RMK A01 T02370102  RH  042%=      5-min Rain = 0
KCO2 212213Z 16010KT 24/10 A3018 RMK A01 T02360103  RH  043%=      5-min Rain = 0
KCO2 212214Z 16011KT 24/10 A3018 RMK A01 T02350103  RH  043%=      5-min Rain = 0
KCO2 212215Z 16012KT 24/10 A3018 RMK A01 T02350104  RH  043%=      5-min Rain = 0
KCO2 212216Z 17011KT 24/10 A3018 RMK A01 T02350104  RH  044%=      5-min Rain = 0
KCO2 212217Z 17011KT 24/10 A3018 RMK A01 T02350104  RH  044%=      5-min Rain = 0
KCO2 212218Z 17009KT 24/10 A3018 RMK A01 T02350104  RH  043%=      5-min Rain = 0
KCO2 212219Z 16009KT 24/10 A3018 RMK A01 T02360104  RH  043%=      5-min Rain = 0
KCO2 212220Z 16009KT 24/11 A3018 RMK A01 T02370105  RH  043%=      5-min Rain = 0
KCO2 212221Z 15008KT 24/11 A3018 RMK A01 T02370106  RH  043%=      5-min Rain = 0
KCO2 212222Z 16009KT 24/11 A3018 RMK A01 T02380106  RH  043%=      5-min Rain = 0
KCO2 212223Z 15009KT 24/11 A3018 RMK A01 T02380106  RH  043%=      5-min Rain = 0
KCO2 212224Z 15010KT 24/11 A3018 RMK A01 T02390105  RH  043%=      5-min Rain = 0
KCO2 212225Z 16010KT 24/10 A3018 RMK A01 T02390104  RH  043%=      5-min Rain = 0
KCO2 212226Z 16009KT 24/10 A3017 RMK A01 T02390104  RH  042%=      5-min Rain = 0
KCO2 212227Z 15009KT 24/10 A3017 RMK A01 T02380104  RH  043%=      5-min Rain = 0
KCO2 212228Z 14010KT 24/10 A3018 RMK A01 T02380104  RH  043%=      5-min Rain = 0
KCO2 212229Z 14010KT 24/10 A3018 RMK A01 T02380103  RH  043%=      5-min Rain = 0
KCO2 212230Z 14010KT 24/10 A3018 RMK A01 T02380103  RH  043%=      5-min Rain = 0
KCO2 212231Z 15012KT 24/10 A3018 RMK A01 T02380103  RH  042%=      5-min Rain = 0
KCO2 212232Z 15008KT 24/10 A3018 RMK A01 T02360102  RH  043%=      5-min Rain = 0
KCO2 212233Z 15008KT 24/10 A3018 RMK A01 T02360103  RH  043%=      5-min Rain = 0
KCO2 212234Z 14011KT 24/10 A3018 RMK A01 T02360103  RH  043%=      5-min Rain = 0
KCO2 212235Z 14010KT 24/10 A3018 RMK A01 T02350103  RH  043%=      5-min Rain = 0
KCO2 212236Z 15011KT 24/10 A3018 RMK A01 T02350103  RH  043%=      5-min Rain = 0
KCO2 212237Z 16010KT 24/10 A3018 RMK A01 T02350103  RH  043%=      5-min Rain = 0
KCO2 212238Z 16007KT 23/10 A3018 RMK A01 T02340103  RH  043%=      5-min Rain = 0
KCO2 212239Z 18007KT 23/10 A3018 RMK A01 T02340103  RH  044%=      5-min Rain = 0
KCO2 212240Z 16008G13KT 24/10 A3018 RMK A01 T02350104  RH  043%=      5-min Rain = 0
KCO2 212241Z 16010KT 24/10 A3018 RMK A01 T02350104  RH  043%=      5-min Rain = 0
KCO2 212242Z 15011KT 23/10 A3018 RMK A01 T02340103  RH  043%=      5-min Rain = 0
KCO2 212243Z 16008KT 23/10 A3018 RMK A01 T02340103  RH  044%=      5-min Rain = 0
KCO2 212244Z 15011KT 23/10 A3018 RMK A01 T02340103  RH  044%=      5-min Rain = 0
KCO2 212245Z 16009KT 23/10 A3018 RMK A01 T02330102  RH  043%=      5-min Rain = 0
KCO2 212246Z 16008KT 23/10 A3018 RMK A01 T02330102  RH  044%=      5-min Rain = 0
KCO2 212247Z 15009KT 23/10 A3018 RMK A01 T02330102  RH  044%=      5-min Rain = 0
KCO2 212248Z 15010KT 23/10 A3018 RMK A01 T02330103  RH  044%=      5-min Rain = 0
KCO2 212249Z 15010KT 23/10 A3017 RMK A01 T02320103  RH  044%=      5-min Rain = 0
KCO2 212250Z 16009KT 23/10 A3017 RMK A01 T02320103  RH  044%=      5-min Rain = 0
KCO2 212251Z 15008KT 23/10 A3017 RMK A01 T02320102  RH  044%=      5-min Rain = 0
KCO2 212252Z 16009KT 23/10 A3017 RMK A01 T02310103  RH  044%=      5-min Rain = 0
KCO2 212253Z 16008KT 23/10 A3017 RMK A01 T02310103  RH  044%=      5-min Rain = 0
KCO2 212254Z 15008KT 23/10 A3017 RMK A01 T02310103  RH  044%=      5-min Rain = 0
KCO2 212255Z 15012KT 23/10 A3017 RMK A01 T02310103  RH  044%=      5-min Rain = 0
KCO2 212256Z 15012KT 23/10 A3017 RMK A01 T02300102  RH  044%=      5-min Rain = 0
KCO2 212257Z 15011KT 23/10 A3017 RMK A01 T02290102  RH  045%=      5-min Rain = 0
KCO2 212258Z 15010KT 23/10 A3017 RMK A01 T02290103  RH  045%=      5-min Rain = 0
KCO2 212259Z 15008KT 23/10 A3017 RMK A01 T02280104  RH  045%=      5-min Rain = 0
KCO2 212300Z 15009KT 23/10 A3017 RMK A01 T02270103  RH  045%=      5-min Rain = 0
KCO2 212301Z 15008KT 23/10 A3017 RMK A01 T02260104  RH  046%=      5-min Rain = 0
KCO2 212302Z 14010KT 23/10 A3017 RMK A01 T02250104  RH  046%=      5-min Rain = 0
KCO2 212303Z 14009KT 23/10 A3017 RMK A01 T02250104  RH  046%=      5-min Rain = 0
KCO2 212304Z 15007KT 23/10 A3017 RMK A01 T02250104  RH  046%=      5-min Rain = 0
KCO2 212305Z 14009KT 22/10 A3017 RMK A01 T02240104  RH  046%=      5-min Rain = 0
KCO2 212306Z 15008KT 22/10 A3018 RMK A01 T02240104  RH  046%=      5-min Rain = 0
KCO2 212307Z 15006KT 22/10 A3018 RMK A01 T02240104  RH  047%=      5-min Rain = 0
KCO2 212308Z 14006KT 22/10 A3018 RMK A01 T02230104  RH  047%=      5-min Rain = 0
KCO2 212309Z 14007KT 22/10 A3018 RMK A01 T02230104  RH  047%=      5-min Rain = 0
KCO2 212310Z 14007KT 22/10 A3018 RMK A01 T02220104  RH  047%=      5-min Rain = 0
KCO2 212311Z 14007KT 22/10 A3018 RMK A01 T02220104  RH  047%=      5-min Rain = 0
KCO2 212312Z 14006KT 22/10 A3018 RMK A01 T02210104  RH  047%=      5-min Rain = 0
KCO2 212313Z 14007KT 22/10 A3018 RMK A01 T02210104  RH  048%=      5-min Rain = 0
KCO2 212314Z 15006KT 22/10 A3018 RMK A01 T02200104  RH  048%=      5-min Rain = 0
KCO2 212315Z 14006KT 22/10 A3018 RMK A01 T02190104  RH  048%=      5-min Rain = 0
KCO2 212316Z 15007KT 22/10 A3018 RMK A01 T02180104  RH  048%=      5-min Rain = 0
KCO2 212317Z 14009KT 22/10 A3018 RMK A01 T02180103  RH  048%=      5-min Rain = 0
KCO2 212318Z 15007KT 22/10 A3018 RMK A01 T02180103  RH  048%=      5-min Rain = 0
KCO2 212319Z 15007KT 22/10 A3018 RMK A01 T02180103  RH  048%=      5-min Rain = 0
KCO2 212320Z 14007KT 22/10 A3017 RMK A01 T02170102  RH  048%=      5-min Rain = 0
KCO2 212321Z 14008KT 22/10 A3017 RMK A01 T02170102  RH  048%=      5-min Rain = 0
KCO2 212322Z 14007KT 22/10 A3017 RMK A01 T02160102  RH  048%=      5-min Rain = 0
KCO2 212323Z 14007KT 22/10 A3017 RMK A01 T02150102  RH  048%=      5-min Rain = 0
KCO2 212324Z 14007KT 21/10 A3017 RMK A01 T02140102  RH  049%=      5-min Rain = 0
KCO2 212325Z 14007KT 21/10 A3017 RMK A01 T02130102  RH  049%=      5-min Rain = 0
KCO2 212326Z 14007KT 21/10 A3017 RMK A01 T02120101  RH  049%=      5-min Rain = 0
KCO2 212327Z 14007KT 21/10 A3017 RMK A01 T02110101  RH  049%=      5-min Rain = 0
KCO2 212328Z 14007KT 21/10 A3017 RMK A01 T02110101  RH  049%=      5-min Rain = 0
KCO2 212329Z 14007KT 21/10 A3017 RMK A01 T02110101  RH  050%=      5-min Rain = 0
KCO2 212330Z 14007KT 21/10 A3017 RMK A01 T02100101  RH  050%=      5-min Rain = 0
KCO2 212331Z 14008KT 21/10 A3017 RMK A01 T02100101  RH  050%=      5-min Rain = 0
KCO2 212332Z 14007KT 21/10 A3017 RMK A01 T02100101  RH  050%=      5-min Rain = 0
KCO2 212333Z 14007KT 21/10 A3017 RMK A01 T02090101  RH  050%=      5-min Rain = 0
KCO2 212334Z 15007KT 21/10 A3017 RMK A01 T02080101  RH  050%=      5-min Rain = 0
KCO2 212335Z 14007KT 21/10 A3017 RMK A01 T02080101  RH  050%=      5-min Rain = 0
KCO2 212336Z 14006KT 21/10 A3017 RMK A01 T02070101  RH  051%=      5-min Rain = 0
KCO2 212337Z 14006KT 21/10 A3017 RMK A01 T02060101  RH  051%=      5-min Rain = 0
KCO2 212338Z 14007KT 21/10 A3017 RMK A01 T02050101  RH  051%=      5-min Rain = 0
KCO2 212339Z 14007KT 20/10 A3017 RMK A01 T02040101  RH  051%=      5-min Rain = 0
KCO2 212340Z 14007KT 20/10 A3017 RMK A01 T02040101  RH  052%=      5-min Rain = 0
KCO2 212341Z 14006KT 20/10 A3017 RMK A01 T02030101  RH  052%=      5-min Rain = 0
KCO2 212342Z 14006KT 20/10 A3017 RMK A01 T02020101  RH  052%=      5-min Rain = 0
KCO2 212343Z 14006KT 20/10 A3017 RMK A01 T02020101  RH  052%=      5-min Rain = 0
KCO2 212344Z 14006KT 20/10 A3017 RMK A01 T02010101  RH  052%=      5-min Rain = 0
KCO2 212345Z 14006KT 20/10 A3017 RMK A01 T02010101  RH  053%=      5-min Rain = 0
KCO2 212346Z 14006KT 20/10 A3017 RMK A01 T02000101  RH  053%=      5-min Rain = 0
KCO2 212347Z 14006KT 20/10 A3017 RMK A01 T02000101  RH  053%=      5-min Rain = 0
KCO2 212348Z 14007KT 20/10 A3016 RMK A01 T01990101  RH  053%=      5-min Rain = 0
KCO2 212349Z 15006KT 20/10 A3016 RMK A01 T01990101  RH  053%=      5-min Rain = 0
KCO2 212350Z 15006KT 20/10 A3016 RMK A01 T01990101  RH  053%=      5-min Rain = 0
KCO2 212351Z 15006KT 20/10 A3016 RMK A01 T01980101  RH  053%=      5-min Rain = 0
KCO2 212352Z 14006KT 20/10 A3016 RMK A01 T01970100  RH  053%=      5-min Rain = 0
KCO2 212353Z 14006KT 20/10 A3016 RMK A01 T01970101  RH  054%=      5-min Rain = 0
KCO2 212354Z 14006KT 20/10 A3016 RMK A01 T01960100  RH  054%=      5-min Rain = 0
KCO2 212355Z 14007KT 20/10 A3016 RMK A01 T01950101  RH  054%=      5-min Rain = 0
KCO2 212356Z 14007KT 19/10 A3016 RMK A01 T01940101  RH  055%=      5-min Rain = 0
KCO2 212357Z 14007KT 19/10 A3016 RMK A01 T01930101  RH  055%=      5-min Rain = 0
KCO2 212358Z 14007KT 19/10 A3016 RMK A01 T01920101  RH  055%=      5-min Rain = 0
KCO2 212359Z 14006KT 19/10 A3016 RMK A01 T01920101  RH  055%=      5-min Rain = 0
KCO2 220000Z 14006KT 19/10 A3016 RMK A01 T01920101  RH  055%=      5-min Rain = 0
KCO2 220001Z 14006KT 19/10 A3016 RMK A01 T01910101  RH  056%=      5-min Rain = 0
KCO2 220002Z 14006KT 19/10 A3016 RMK A01 T01910101  RH  056%=      5-min Rain = 0
KCO2 220003Z 14006KT 19/10 A3016 RMK A01 T01900100  RH  056%=      5-min Rain = 0
KCO2 220004Z 14006KT 19/10 A3016 RMK A01 T01900101  RH  056%=      5-min Rain = 0
KCO2 220005Z 14006KT 19/10 A3016 RMK A01 T01890100  RH  056%=      5-min Rain = 0
KCO2 220006Z 14006KT 19/10 A3017 RMK A01 T01880100  RH  057%=      5-min Rain = 0
KCO2 220007Z 14006KT 19/10 A3017 RMK A01 T01870100  RH  057%=      5-min Rain = 0
KCO2 220008Z 14006KT 19/10 A3017 RMK A01 T01860100  RH  057%=      5-min Rain = 0
KCO2 220009Z 14006KT 19/10 A3017 RMK A01 T01850100  RH  058%=      5-min Rain = 0
KCO2 220010Z 14006KT 18/10 A3017 RMK A01 T01840100  RH  058%=      5-min Rain = 0
KCO2 220011Z 14006KT 18/10 A3017 RMK A01 T01830100  RH  058%=      5-min Rain = 0
KCO2 220012Z 14005KT 18/10 A3017 RMK A01 T01830100  RH  058%=      5-min Rain = 0
KCO2 220013Z 14005KT 18/10 A3017 RMK A01 T01820100  RH  059%=      5-min Rain = 0
KCO2 220014Z 13005KT 18/10 A3017 RMK A01 T01820100  RH  059%=      5-min Rain = 0
KCO2 220015Z 13005KT 18/10 A3017 RMK A01 T01810100  RH  059%=      5-min Rain = 0
KCO2 220016Z 13006KT 18/10 A3017 RMK A01 T01810100  RH  059%=      5-min Rain = 0
KCO2 220017Z 13006KT 18/10 A3017 RMK A01 T01810100  RH  059%=      5-min Rain = 0
KCO2 220018Z 13006KT 18/10 A3017 RMK A01 T01790100  RH  060%=      5-min Rain = 0
KCO2 220019Z 13006KT 18/10 A3017 RMK A01 T01790100  RH  060%=      5-min Rain = 0
KCO2 220020Z 13006KT 18/10 A3017 RMK A01 T01780100  RH  060%=      5-min Rain = 0
KCO2 220021Z 13006KT 18/10 A3017 RMK A01 T01780100  RH  060%=      5-min Rain = 0
KCO2 220022Z 13006KT 18/10 A3017 RMK A01 T01770100  RH  060%=      5-min Rain = 0
KCO2 220023Z 13006KT 18/10 A3017 RMK A01 T01770100  RH  061%=      5-min Rain = 0
KCO2 220024Z 14006KT 18/10 A3017 RMK A01 T01770100  RH  061%=      5-min Rain = 0
KCO2 220025Z 14006KT 18/10 A3017 RMK A01 T01760100  RH  061%=      5-min Rain = 0
KCO2 220026Z 14006KT 18/10 A3017 RMK A01 T01750100  RH  061%=      5-min Rain = 0
KCO2 220027Z 14006KT 18/10 A3017 RMK A01 T01750100  RH  061%=      5-min Rain = 0
KCO2 220028Z 14006KT 18/10 A3017 RMK A01 T01750100  RH  062%=      5-min Rain = 0
KCO2 220029Z 14006KT 17/10 A3017 RMK A01 T01740100  RH  062%=      5-min Rain = 0
KCO2 220030Z 14006KT 17/10 A3017 RMK A01 T01740100  RH  062%=      5-min Rain = 0
KCO2 220031Z 13006KT 17/10 A3017 RMK A01 T01740100  RH  062%=      5-min Rain = 0
KCO2 220032Z 14006KT 17/10 A3017 RMK A01 T01740100  RH  062%=      5-min Rain = 0
KCO2 220033Z 14006KT 17/10 A3017 RMK A01 T01740101  RH  062%=      5-min Rain = 0
KCO2 220034Z 14006KT 17/10 A3017 RMK A01 T01740101  RH  062%=      5-min Rain = 0
KCO2 220035Z 14006KT 17/10 A3017 RMK A01 T01740101  RH  062%=      5-min Rain = 0
KCO2 220036Z 14006KT 17/10 A3017 RMK A01 T01740100  RH  062%=      5-min Rain = 0
KCO2 220037Z 14006KT 17/10 A3017 RMK A01 T01740100  RH  062%=      5-min Rain = 0
KCO2 220038Z 14006KT 17/10 A3017 RMK A01 T01740100  RH  062%=      5-min Rain = 0
KCO2 220039Z 14005KT 17/10 A3017 RMK A01 T01740101  RH  062%=      5-min Rain = 0
KCO2 220040Z 13005KT 17/10 A3017 RMK A01 T01740100  RH  062%=      5-min Rain = 0
KCO2 220041Z 13005KT 17/10 A3017 RMK A01 T01740101  RH  062%=      5-min Rain = 0
KCO2 220042Z 13005KT 17/10 A3017 RMK A01 T01740101  RH  062%=      5-min Rain = 0
KCO2 220043Z 13005KT 17/10 A3017 RMK A01 T01740102  RH  062%=      5-min Rain = 0
KCO2 220044Z 12005KT 17/10 A3017 RMK A01 T01740102  RH  063%=      5-min Rain = 0
KCO2 220045Z 12005KT 17/10 A3017 RMK A01 T01740102  RH  063%=      5-min Rain = 0
KCO2 220046Z 12005KT 17/10 A3017 RMK A01 T01740102  RH  063%=      5-min Rain = 0
KCO2 220047Z 12005KT 17/10 A3017 RMK A01 T01740102  RH  063%=      5-min Rain = 0
KCO2 220048Z 12005KT 17/10 A3017 RMK A01 T01740101  RH  062%=      5-min Rain = 0
KCO2 220049Z 12005KT 17/10 A3017 RMK A01 T01740101  RH  062%=      5-min Rain = 0
KCO2 220050Z 12005KT 17/10 A3017 RMK A01 T01740101  RH  062%=      5-min Rain = 0
KCO2 220051Z 13006KT 17/10 A3017 RMK A01 T01730101  RH  062%=      5-min Rain = 0
KCO2 220052Z 13006KT 17/10 A3017 RMK A01 T01730100  RH  062%=      5-min Rain = 0
KCO2 220053Z 13005KT 17/10 A3017 RMK A01 T01730100  RH  062%=      5-min Rain = 0
KCO2 220054Z 13005KT 17/10 A3017 RMK A01 T01730100  RH  062%=      5-min Rain = 0
KCO2 220055Z 13005KT 17/10 A3017 RMK A01 T01730100  RH  062%=      5-min Rain = 0
KCO2 220056Z 12005KT 17/10 A3017 RMK A01 T01720100  RH  063%=      5-min Rain = 0
KCO2 220057Z 12005KT 17/10 A3017 RMK A01 T01720100  RH  063%=      5-min Rain = 0
KCO2 220058Z 12005KT 17/10 A3017 RMK A01 T01710100  RH  063%=      5-min Rain = 0
KCO2 220059Z 12005KT 17/10 A3017 RMK A01 T01710100  RH  063%=      5-min Rain = 0
KCO2 220100Z 12004KT 17/10 A3018 RMK A01 T01710100  RH  063%=      5-min Rain = 0
KCO2 220101Z 11004KT 17/10 A3018 RMK A01 T01700100  RH  063%=      5-min Rain = 0
KCO2 220102Z 12005KT 17/10 A3017 RMK A01 T01690100  RH  064%=      5-min Rain = 0
KCO2 220103Z 12005KT 17/10 A3017 RMK A01 T01690100  RH  064%=      5-min Rain = 0
KCO2 220104Z 12005KT 17/10 A3017 RMK A01 T01680099  RH  064%=      5-min Rain = 0
KCO2 220105Z 12006KT 17/10 A3017 RMK A01 T01680100  RH  064%=      5-min Rain = 0
KCO2 220106Z 12005KT 17/10 A3017 RMK A01 T01670099  RH  064%=      5-min Rain = 0
KCO2 220107Z 13005KT 17/10 A3017 RMK A01 T01660099  RH  064%=      5-min Rain = 0
KCO2 220108Z 12005KT 17/10 A3017 RMK A01 T01650099  RH  065%=      5-min Rain = 0
KCO2 220109Z 13005KT 16/10 A3017 RMK A01 T01640098  RH  065%=      5-min Rain = 0
KCO2 220110Z 13005KT 16/10 A3017 RMK A01 T01630098  RH  065%=      5-min Rain = 0
KCO2 220111Z 13005KT 16/10 A3018 RMK A01 T01620098  RH  066%=      5-min Rain = 0
KCO2 220112Z 13005KT 16/10 A3018 RMK A01 T01620099  RH  066%=      5-min Rain = 0
KCO2 220113Z 13005KT 16/10 A3018 RMK A01 T01620099  RH  066%=      5-min Rain = 0
KCO2 220114Z 13005KT 16/10 A3018 RMK A01 T01620099  RH  066%=      5-min Rain = 0
KCO2 220115Z 13005KT 16/10 A3018 RMK A01 T01620099  RH  066%=      5-min Rain = 0
KCO2 220116Z 13005KT 16/10 A3018 RMK A01 T01620099  RH  066%=      5-min Rain = 0
KCO2 220117Z 13005KT 16/10 A3018 RMK A01 T01630099  RH  066%=      5-min Rain = 0
KCO2 220118Z 13005KT 16/10 A3018 RMK A01 T01630099  RH  066%=      5-min Rain = 0
KCO2 220119Z 13005KT 16/10 A3018 RMK A01 T01630099  RH  066%=      5-min Rain = 0
KCO2 220120Z 13005KT 16/10 A3018 RMK A01 T01630099  RH  066%=      5-min Rain = 0
KCO2 220121Z 13005KT 16/10 A3018 RMK A01 T01630099  RH  066%=      5-min Rain = 0
KCO2 220122Z 13005KT 16/10 A3018 RMK A01 T01620099  RH  066%=      5-min Rain = 0
KCO2 220123Z 13005KT 16/10 A3018 RMK A01 T01630099  RH  066%=      5-min Rain = 0
KCO2 220124Z 13005KT 16/10 A3018 RMK A01 T01620099  RH  066%=      5-min Rain = 0
KCO2 220125Z 13005KT 16/10 A3018 RMK A01 T01630099  RH  066%=      5-min Rain = 0
KCO2 220126Z 13005KT 16/10 A3018 RMK A01 T01620099  RH  066%=      5-min Rain = 0
KCO2 220127Z 13005KT 16/10 A3018 RMK A01 T01630099  RH  066%=      5-min Rain = 0
KCO2 220128Z 13005KT 16/10 A3018 RMK A01 T01620100  RH  066%=      5-min Rain = 0
KCO2 220129Z 13005KT 16/10 A3018 RMK A01 T01620099  RH  066%=      5-min Rain = 0
KCO2 220130Z 13005KT 16/10 A3018 RMK A01 T01620100  RH  067%=      5-min Rain = 0
KCO2 220131Z 13005KT 16/10 A3018 RMK A01 T01620100  RH  067%=      5-min Rain = 0
KCO2 220132Z 13005KT 16/10 A3018 RMK A01 T01610099  RH  067%=      5-min Rain = 0
KCO2 220133Z 13005KT 16/10 A3018 RMK A01 T01610099  RH  067%=      5-min Rain = 0
KCO2 220134Z 13005KT 16/10 A3018 RMK A01 T01610100  RH  067%=      5-min Rain = 0
KCO2 220135Z 13005KT 16/10 A3018 RMK A01 T01600099  RH  067%=      5-min Rain = 0
KCO2 220136Z 13005KT 16/10 A3018 RMK A01 T01600099  RH  067%=      5-min Rain = 0
KCO2 220137Z 13005KT 16/10 A3018 RMK A01 T01590099  RH  068%=      5-min Rain = 0
KCO2 220138Z 13005KT 16/10 A3018 RMK A01 T01590100  RH  068%=      5-min Rain = 0
KCO2 220139Z 12005KT 16/10 A3018 RMK A01 T01590099  RH  068%=      5-min Rain = 0
KCO2 220140Z 12005KT 16/10 A3018 RMK A01 T01570098  RH  068%=      5-min Rain = 0
KCO2 220141Z 12005KT 16/10 A3018 RMK A01 T01560098  RH  068%=      5-min Rain = 0
KCO2 220142Z 13005KT 16/10 A3018 RMK A01 T01550097  RH  069%=      5-min Rain = 0
KCO2 220143Z 12005KT 15/10 A3018 RMK A01 T01540097  RH  069%=      5-min Rain = 0
KCO2 220144Z 12005KT 15/10 A3018 RMK A01 T01540097  RH  069%=      5-min Rain = 0
KCO2 220145Z 12005KT 15/10 A3018 RMK A01 T01530097  RH  069%=      5-min Rain = 0
KCO2 220146Z 12005KT 15/10 A3018 RMK A01 T01530097  RH  069%=      5-min Rain = 0
KCO2 220147Z 12005KT 15/10 A3018 RMK A01 T01530098  RH  070%=      5-min Rain = 0
KCO2 220148Z 12005KT 15/10 A3018 RMK A01 T01530097  RH  070%=      5-min Rain = 0
KCO2 220149Z 12005KT 15/10 A3018 RMK A01 T01520098  RH  070%=      5-min Rain = 0
KCO2 220150Z 11005KT 15/10 A3018 RMK A01 T01520097  RH  070%=      5-min Rain = 0
KCO2 220151Z 11005KT 15/10 A3018 RMK A01 T01520098  RH  070%=      5-min Rain = 0
KCO2 220152Z 11005KT 15/10 A3018 RMK A01 T01520097  RH  070%=      5-min Rain = 0
KCO2 220153Z 11005KT 15/10 A3018 RMK A01 T01500096  RH  070%=      5-min Rain = 0
KCO2 220154Z 11005KT 15/10 A3018 RMK A01 T01490096  RH  070%=      5-min Rain = 0
KCO2 220155Z 11005KT 15/10 A3018 RMK A01 T01490096  RH  071%=      5-min Rain = 0
KCO2 220156Z 11005KT 15/10 A3018 RMK A01 T01490096  RH  071%=      5-min Rain = 0
KCO2 220157Z 11005KT 15/10 A3018 RMK A01 T01480096  RH  071%=      5-min Rain = 0
KCO2 220158Z 11005KT 15/10 A3018 RMK A01 T01480096  RH  071%=      5-min Rain = 0
KCO2 220159Z 10005KT 15/10 A3018 RMK A01 T01470096  RH  071%=      5-min Rain = 0
KCO2 220200Z 10005KT 15/10 A3018 RMK A01 T01470096  RH  071%=      5-min Rain = 0
KCO2 220201Z 10005KT 15/10 A3018 RMK A01 T01470096  RH  072%=      5-min Rain = 0
KCO2 220202Z 10005KT 15/10 A3018 RMK A01 T01460096  RH  072%=      5-min Rain = 0
KCO2 220203Z 11005KT 15/10 A3018 RMK A01 T01460096  RH  072%=      5-min Rain = 0
KCO2 220204Z 10005KT 15/10 A3018 RMK A01 T01460096  RH  072%=      5-min Rain = 0
KCO2 220205Z 10006KT 15/10 A3018 RMK A01 T01460096  RH  072%=      5-min Rain = 0
KCO2 220206Z 10006KT 15/10 A3018 RMK A01 T01470097  RH  072%=      5-min Rain = 0
KCO2 220207Z 11006KT 15/10 A3018 RMK A01 T01470096  RH  072%=      5-min Rain = 0
KCO2 220208Z 11006KT 15/10 A3018 RMK A01 T01470096  RH  072%=      5-min Rain = 0
KCO2 220209Z 11006KT 15/10 A3018 RMK A01 T01470097  RH  072%=      5-min Rain = 0
KCO2 220210Z 11006KT 15/10 A3018 RMK A01 T01470096  RH  072%=      5-min Rain = 0
KCO2 220211Z 11006KT 15/10 A3018 RMK A01 T01480097  RH  072%=      5-min Rain = 0
KCO2 220212Z 11006KT 15/10 A3018 RMK A01 T01470097  RH  072%=      5-min Rain = 0
KCO2 220213Z 12006KT 15/10 A3018 RMK A01 T01480097  RH  072%=      5-min Rain = 0
KCO2 220214Z 12006KT 15/10 A3018 RMK A01 T01480097  RH  071%=      5-min Rain = 0
KCO2 220215Z 12006KT 15/10 A3018 RMK A01 T01490097  RH  071%=      5-min Rain = 0
KCO2 220216Z 11006KT 15/10 A3018 RMK A01 T01490097  RH  071%=      5-min Rain = 0
KCO2 220217Z 11006KT 15/10 A3018 RMK A01 T01490098  RH  071%=      5-min Rain = 0
KCO2 220218Z 11006KT 15/10 A3018 RMK A01 T01490097  RH  071%=      5-min Rain = 0
KCO2 220219Z 11006KT 15/10 A3018 RMK A01 T01490097  RH  071%=      5-min Rain = 0
KCO2 220220Z 11006KT 15/10 A3018 RMK A01 T01480096  RH  071%=      5-min Rain = 0
KCO2 220221Z 11006KT 15/10 A3018 RMK A01 T01470096  RH  072%=      5-min Rain = 0
KCO2 220222Z 11006KT 15/10 A3018 RMK A01 T01470097  RH  072%=      5-min Rain = 0
KCO2 220223Z 11006KT 15/10 A3019 RMK A01 T01470097  RH  072%=      5-min Rain = 0
KCO2 220224Z 11006KT 15/10 A3019 RMK A01 T01460096  RH  072%=      5-min Rain = 0
KCO2 220225Z 11006KT 15/10 A3019 RMK A01 T01460097  RH  072%=      5-min Rain = 0
KCO2 220226Z 11006KT 15/10 A3019 RMK A01 T01460096  RH  072%=      5-min Rain = 0
KCO2 220227Z 11006KT 15/10 A3019 RMK A01 T01460097  RH  072%=      5-min Rain = 0
KCO2 220228Z 11006KT 15/10 A3019 RMK A01 T01460097  RH  072%=      5-min Rain = 0
KCO2 220229Z 11006KT 15/10 A3019 RMK A01 T01460097  RH  072%=      5-min Rain = 0
KCO2 220230Z 11006KT 15/10 A3019 RMK A01 T01460096  RH  072%=      5-min Rain = 0
KCO2 220231Z 11006KT 15/10 A3019 RMK A01 T01460096  RH  072%=      5-min Rain = 0
KCO2 220232Z 11006KT 15/10 A3019 RMK A01 T01460096  RH  072%=      5-min Rain = 0
KCO2 220233Z 11006KT 15/10 A3019 RMK A01 T01450096  RH  072%=      5-min Rain = 0
KCO2 220234Z 11006KT 15/10 A3019 RMK A01 T01450096  RH  072%=      5-min Rain = 0
KCO2 220235Z 11006KT 15/10 A3019 RMK A01 T01450096  RH  073%=      5-min Rain = 0
KCO2 220236Z 11006KT 15/10 A3019 RMK A01 T01450096  RH  072%=      5-min Rain = 0
KCO2 220237Z 11006KT 15/10 A3019 RMK A01 T01450096  RH  073%=      5-min Rain = 0
KCO2 220238Z 10006KT 15/10 A3019 RMK A01 T01450096  RH  073%=      5-min Rain = 0
KCO2 220239Z 10006KT 14/10 A3019 RMK A01 T01440096  RH  073%=      5-min Rain = 0
KCO2 220240Z 11006KT 14/10 A3019 RMK A01 T01440096  RH  073%=      5-min Rain = 0
KCO2 220241Z 11006KT 14/10 A3019 RMK A01 T01440096  RH  073%=      5-min Rain = 0
KCO2 220242Z 11006KT 14/10 A3019 RMK A01 T01440096  RH  073%=      5-min Rain = 0
KCO2 220243Z 11006KT 14/10 A3019 RMK A01 T01440096  RH  073%=      5-min Rain = 0
KCO2 220244Z 11006KT 14/10 A3019 RMK A01 T01440096  RH  073%=      5-min Rain = 0
KCO2 220245Z 12006KT 14/10 A3019 RMK A01 T01440096  RH  073%=      5-min Rain = 0
KCO2 220246Z 12006KT 14/10 A3019 RMK A01 T01440096  RH  073%=      5-min Rain = 0
KCO2 220247Z 12006KT 14/10 A3019 RMK A01 T01440096  RH  073%=      5-min Rain = 0
KCO2 220248Z 12006KT 14/10 A3019 RMK A01 T01440096  RH  073%=      5-min Rain = 0
KCO2 220249Z 12006KT 14/10 A3019 RMK A01 T01440096  RH  073%=      5-min Rain = 0
KCO2 220250Z 12006KT 14/10 A3019 RMK A01 T01440096  RH  073%=      5-min Rain = 0
KCO2 220251Z 12005KT 14/10 A3019 RMK A01 T01440097  RH  073%=      5-min Rain = 0
KCO2 220252Z 11005KT 14/10 A3019 RMK A01 T01440096  RH  073%=      5-min Rain = 0
KCO2 220253Z 12005KT 14/10 A3019 RMK A01 T01440096  RH  073%=      5-min Rain = 0
KCO2 220254Z 11005KT 14/10 A3019 RMK A01 T01430096  RH  073%=      5-min Rain = 0
KCO2 220255Z 11005KT 14/10 A3019 RMK A01 T01430096  RH  073%=      5-min Rain = 0
KCO2 220256Z 11005KT 14/10 A3019 RMK A01 T01420095  RH  073%=      5-min Rain = 0
KCO2 220257Z 12005KT 14/10 A3019 RMK A01 T01410095  RH  074%=      5-min Rain = 0
KCO2 220258Z 12005KT 14/10 A3019 RMK A01 T01410095  RH  074%=      5-min Rain = 0
KCO2 220259Z 12005KT 14/10 A3019 RMK A01 T01410095  RH  074%=      5-min Rain = 0
KCO2 220300Z 12005KT 14/10 A3019 RMK A01 T01410095  RH  074%=      5-min Rain = 0
KCO2 220301Z 12005KT 14/10 A3019 RMK A01 T01400095  RH  074%=      5-min Rain = 0
KCO2 220302Z 12005KT 14/10 A3019 RMK A01 T01410095  RH  074%=      5-min Rain = 0
KCO2 220303Z 12005KT 14/10 A3019 RMK A01 T01400095  RH  074%=      5-min Rain = 0
KCO2 220304Z 12005KT 14/10 A3019 RMK A01 T01410095  RH  074%=      5-min Rain = 0
KCO2 220305Z 13006KT 14/10 A3019 RMK A01 T01410095  RH  074%=      5-min Rain = 0
KCO2 220306Z 12006KT 14/10 A3019 RMK A01 T01410095  RH  074%=      5-min Rain = 0
KCO2 220307Z 12006KT 14/10 A3019 RMK A01 T01410095  RH  074%=      5-min Rain = 0
KCO2 220308Z 12006KT 14/10 A3019 RMK A01 T01410095  RH  074%=      5-min Rain = 0
KCO2 220309Z 12005KT 14/10 A3019 RMK A01 T01410095  RH  074%=      5-min Rain = 0
KCO2 220310Z 12005KT 14/10 A3019 RMK A01 T01410095  RH  074%=      5-min Rain = 0
KCO2 220311Z 12005KT 14/10 A3019 RMK A01 T01410095  RH  074%=      5-min Rain = 0
KCO2 220312Z 12005KT 14/10 A3019 RMK A01 T01410095  RH  074%=      5-min Rain = 0
KCO2 220313Z 12005KT 14/10 A3019 RMK A01 T01400095  RH  074%=      5-min Rain = 0
KCO2 220314Z 13005KT 14/10 A3019 RMK A01 T01400095  RH  074%=      5-min Rain = 0
KCO2 220315Z 13005KT 14/10 A3019 RMK A01 T01400095  RH  074%=      5-min Rain = 0
KCO2 220316Z 12005KT 14/10 A3019 RMK A01 T01390095  RH  074%=      5-min Rain = 0
KCO2 220317Z 13005KT 14/10 A3019 RMK A01 T01390095  RH  075%=      5-min Rain = 0
KCO2 220318Z 12005KT 14/09 A3019 RMK A01 T01380094  RH  075%=      5-min Rain = 0
KCO2 220319Z 12005KT 14/10 A302 RMK A01 T01380095  RH  075%=      5-min Rain = 0
KCO2 220320Z 12005KT 14/09 A302 RMK A01 T01380094  RH  075%=      5-min Rain = 0
KCO2 220321Z 12005KT 14/09 A302 RMK A01 T01380094  RH  075%=      5-min Rain = 0
KCO2 220322Z 13005KT 14/09 A302 RMK A01 T01380094  RH  075%=      5-min Rain = 0
KCO2 220323Z 12005KT 14/09 A302 RMK A01 T01380094  RH  075%=      5-min Rain = 0
KCO2 220324Z 13005KT 14/09 A3019 RMK A01 T01380094  RH  075%=      5-min Rain = 0
KCO2 220325Z 13005KT 14/09 A3019 RMK A01 T01380094  RH  075%=      5-min Rain = 0
KCO2 220326Z 12005KT 14/09 A3019 RMK A01 T01380094  RH  075%=      5-min Rain = 0
KCO2 220327Z 13005KT 14/09 A3019 RMK A01 T01380094  RH  075%=      5-min Rain = 0
KCO2 220328Z 13005KT 14/10 A3019 RMK A01 T01380095  RH  075%=      5-min Rain = 0
KCO2 220329Z 13005KT 14/09 A3019 RMK A01 T01380094  RH  075%=      5-min Rain = 0
KCO2 220330Z 13005KT 14/09 A3019 RMK A01 T01380094  RH  075%=      5-min Rain = 0
KCO2 220331Z 13005KT 14/09 A3019 RMK A01 T01380094  RH  075%=      5-min Rain = 0
KCO2 220332Z 13005KT 14/09 A3019 RMK A01 T01380094  RH  075%=      5-min Rain = 0
KCO2 220333Z 13005KT 14/09 A302 RMK A01 T01380094  RH  075%=      5-min Rain = 0
KCO2 220334Z 13005KT 14/09 A3019 RMK A01 T01380094  RH  075%=      5-min Rain = 0
KCO2 220335Z 13005KT 14/10 A3019 RMK A01 T01380095  RH  075%=      5-min Rain = 0
KCO2 220336Z 13005KT 14/10 A3019 RMK A01 T01380095  RH  075%=      5-min Rain = 0
KCO2 220337Z 13005KT 14/10 A3019 RMK A01 T01380095  RH  075%=      5-min Rain = 0
KCO2 220338Z 13005KT 14/10 A3019 RMK A01 T01380095  RH  075%=      5-min Rain = 0
KCO2 220339Z 13005KT 14/10 A3019 RMK A01 T01380095  RH  075%=      5-min Rain = 0
KCO2 220340Z 13005KT 14/09 A3019 RMK A01 T01370094  RH  075%=      5-min Rain = 0
KCO2 220341Z 13004KT 14/10 A3019 RMK A01 T01380095  RH  075%=      5-min Rain = 0
KCO2 220342Z 13005KT 14/09 A3019 RMK A01 T01370094  RH  075%=      5-min Rain = 0
KCO2 220343Z 13004KT 14/09 A3019 RMK A01 T01370094  RH  076%=      5-min Rain = 0
KCO2 220344Z 13004KT 14/09 A3019 RMK A01 T01360094  RH  076%=      5-min Rain = 0
KCO2 220345Z 13005KT 14/09 A3019 RMK A01 T01360094  RH  076%=      5-min Rain = 0
KCO2 220346Z 13005KT 14/09 A3019 RMK A01 T01360094  RH  076%=      5-min Rain = 0
KCO2 220347Z 13005KT 14/09 A3019 RMK A01 T01350094  RH  076%=      5-min Rain = 0
KCO2 220348Z 13005KT 13/09 A3019 RMK A01 T01340094  RH  076%=      5-min Rain = 0
KCO2 220349Z 14004KT 13/09 A3019 RMK A01 T01340094  RH  077%=      5-min Rain = 0
KCO2 220350Z 14005KT 13/09 A3019 RMK A01 T01330093  RH  077%=      5-min Rain = 0
KCO2 220351Z 14005KT 13/09 A3019 RMK A01 T01330093  RH  077%=      5-min Rain = 0
KCO2 220352Z 14005KT 13/09 A3019 RMK A01 T01330093  RH  077%=      5-min Rain = 0
KCO2 220353Z 14005KT 13/09 A3019 RMK A01 T01330094  RH  077%=      5-min Rain = 0
KCO2 220354Z 14005KT 13/09 A3019 RMK A01 T01330094  RH  077%=      5-min Rain = 0
KCO2 220355Z 14005KT 13/09 A3019 RMK A01 T01330094  RH  077%=      5-min Rain = 0
KCO2 220356Z 14005KT 13/09 A3019 RMK A01 T01340094  RH  077%=      5-min Rain = 0
KCO2 220357Z 14005KT 13/10 A3019 RMK A01 T01340095  RH  077%=      5-min Rain = 0
KCO2 220358Z 14005KT 14/10 A3019 RMK A01 T01350095  RH  077%=      5-min Rain = 0
KCO2 220359Z 14005KT 14/10 A3019 RMK A01 T01350095  RH  077%=      5-min Rain = 0
KCO2 220400Z 14005KT 14/10 A3019 RMK A01 T01350095  RH  077%=      5-min Rain = 0
KCO2 220401Z 14005KT 14/10 A3019 RMK A01 T01350095  RH  077%=      5-min Rain = 0
KCO2 220402Z 14005KT 14/10 A3019 RMK A01 T01350095  RH  077%=      5-min Rain = 0
KCO2 220403Z 14005KT 14/10 A3019 RMK A01 T01350095  RH  077%=      5-min Rain = 0
KCO2 220404Z 14005KT 14/10 A3019 RMK A01 T01350095  RH  077%=      5-min Rain = 0
KCO2 220405Z 14005KT 14/10 A3019 RMK A01 T01350095  RH  077%=      5-min Rain = 0
KCO2 220406Z 14005KT 13/10 A3019 RMK A01 T01340095  RH  077%=      5-min Rain = 0
KCO2 220407Z 14005KT 13/10 A3019 RMK A01 T01340095  RH  077%=      5-min Rain = 0
KCO2 220408Z 14005KT 13/10 A3019 RMK A01 T01340095  RH  077%=      5-min Rain = 0
KCO2 220409Z 14005KT 14/10 A3019 RMK A01 T01350095  RH  077%=      5-min Rain = 0
KCO2 220410Z 14005KT 14/10 A3019 RMK A01 T01350095  RH  077%=      5-min Rain = 0
KCO2 220411Z 14005KT 14/10 A3019 RMK A01 T01350095  RH  077%=      5-min Rain = 0
KCO2 220412Z 14005KT 14/10 A3019 RMK A01 T01350095  RH  077%=      5-min Rain = 0
KCO2 220413Z 14005KT 14/10 A3019 RMK A01 T01350095  RH  077%=      5-min Rain = 0
KCO2 220414Z 14005KT 14/10 A3019 RMK A01 T01360096  RH  077%=      5-min Rain = 0
KCO2 220415Z 14005KT 14/10 A3019 RMK A01 T01360096  RH  077%=      5-min Rain = 0
KCO2 220416Z 14005KT 14/10 A3019 RMK A01 T01360096  RH  077%=      5-min Rain = 0
KCO2 220417Z 13005KT 14/10 A3019 RMK A01 T01360096  RH  077%=      5-min Rain = 0
KCO2 220418Z 13005KT 14/10 A3019 RMK A01 T01360096  RH  077%=      5-min Rain = 0
KCO2 220419Z 13005KT 14/10 A3019 RMK A01 T01360096  RH  077%=      5-min Rain = 0
KCO2 220420Z 14005KT 14/10 A302 RMK A01 T01360096  RH  077%=      5-min Rain = 0
KCO2 220421Z 14005KT 14/10 A302 RMK A01 T01350096  RH  077%=      5-min Rain = 0
KCO2 220422Z 13005KT 14/10 A302 RMK A01 T01360096  RH  077%=      5-min Rain = 0
KCO2 220423Z 14004KT 14/10 A302 RMK A01 T01360096  RH  077%=      5-min Rain = 0
KCO2 220424Z 14004KT 14/10 A302 RMK A01 T01350096  RH  077%=      5-min Rain = 0
KCO2 220425Z 14004KT 14/10 A302 RMK A01 T01360097  RH  077%=      5-min Rain = 0
KCO2 220426Z 13004KT 14/10 A302 RMK A01 T01360097  RH  077%=      5-min Rain = 0
KCO2 220427Z 13004KT 14/10 A302 RMK A01 T01360096  RH  077%=      5-min Rain = 0
KCO2 220428Z 13005KT 14/10 A302 RMK A01 T01360096  RH  077%=      5-min Rain = 0
KCO2 220429Z 13005KT 14/10 A302 RMK A01 T01360097  RH  077%=      5-min Rain = 0
KCO2 220430Z 13005KT 14/10 A302 RMK A01 T01360097  RH  077%=      5-min Rain = 0
KCO2 220431Z 13005KT 14/10 A3019 RMK A01 T01360097  RH  077%=      5-min Rain = 0
KCO2 220432Z 13005KT 14/10 A3019 RMK A01 T01350096  RH  077%=      5-min Rain = 0
KCO2 220433Z 13005KT 14/10 A3019 RMK A01 T01350096  RH  077%=      5-min Rain = 0
KCO2 220434Z 13005KT 14/10 A3019 RMK A01 T01350097  RH  078%=      5-min Rain = 0
KCO2 220435Z 13005KT 13/10 A3019 RMK A01 T01340096  RH  078%=      5-min Rain = 0
KCO2 220436Z 13005KT 13/10 A3019 RMK A01 T01340096  RH  078%=      5-min Rain = 0
KCO2 220437Z 13005KT 13/10 A3019 RMK A01 T01330096  RH  078%=      5-min Rain = 0
KCO2 220438Z 13005KT 13/10 A3019 RMK A01 T01330096  RH  078%=      5-min Rain = 0
KCO2 220439Z 13005KT 13/10 A3019 RMK A01 T01330096  RH  078%=      5-min Rain = 0
KCO2 220440Z 13005KT 13/10 A3019 RMK A01 T01330095  RH  078%=      5-min Rain = 0
KCO2 220441Z 13005KT 13/10 A3019 RMK A01 T01320095  RH  078%=      5-min Rain = 0
KCO2 220442Z 12005KT 13/10 A3019 RMK A01 T01320095  RH  078%=      5-min Rain = 0
KCO2 220443Z 12005KT 13/10 A302 RMK A01 T01320096  RH  079%=      5-min Rain = 0
KCO2 220444Z 12005KT 13/10 A302 RMK A01 T01320095  RH  078%=      5-min Rain = 0
KCO2 220445Z 12005KT 13/10 A302 RMK A01 T01320095  RH  078%=      5-min Rain = 0
KCO2 220446Z 12005KT 13/10 A302 RMK A01 T01320096  RH  079%=      5-min Rain = 0
KCO2 220447Z 12005KT 13/10 A302 RMK A01 T01320096  RH  079%=      5-min Rain = 0
KCO2 220448Z 12005KT 13/10 A302 RMK A01 T01320095  RH  078%=      5-min Rain = 0
KCO2 220449Z 12005KT 13/10 A302 RMK A01 T01320095  RH  078%=      5-min Rain = 0
KCO2 220450Z 12005KT 13/10 A302 RMK A01 T01320095  RH  078%=      5-min Rain = 0
KCO2 220451Z 13005KT 13/10 A302 RMK A01 T01320095  RH  078%=      5-min Rain = 0
KCO2 220452Z 12005KT 13/10 A302 RMK A01 T01320096  RH  079%=      5-min Rain = 0
KCO2 220453Z 12005KT 13/10 A302 RMK A01 T01320096  RH  078%=      5-min Rain = 0
KCO2 220454Z 12004KT 13/10 A302 RMK A01 T01330096  RH  078%=      5-min Rain = 0
KCO2 220455Z 12005KT 13/10 A302 RMK A01 T01330096  RH  078%=      5-min Rain = 0
KCO2 220456Z 12005KT 13/10 A302 RMK A01 T01330096  RH  078%=      5-min Rain = 0
KCO2 220457Z 12005KT 13/10 A302 RMK A01 T01340096  RH  078%=      5-min Rain = 0
KCO2 220458Z 12005KT 13/10 A302 RMK A01 T01340096  RH  078%=      5-min Rain = 0
KCO2 220459Z 12005KT 13/10 A302 RMK A01 T01340095  RH  078%=      5-min Rain = 0
KCO2 220500Z 12005KT 13/10 A302 RMK A01 T01330095  RH  078%=      5-min Rain = 0
KCO2 220501Z 12005KT 13/10 A302 RMK A01 T01330095  RH  078%=      5-min Rain = 0
KCO2 220502Z 11005KT 13/09 A302 RMK A01 T01320094  RH  078%=      5-min Rain = 0
KCO2 220503Z 11005KT 13/09 A302 RMK A01 T01310094  RH  078%=      5-min Rain = 0
KCO2 220504Z 11005KT 13/10 A302 RMK A01 T01310095  RH  079%=      5-min Rain = 0
KCO2 220505Z 11005KT 13/10 A302 RMK A01 T01310095  RH  079%=      5-min Rain = 0
KCO2 220506Z 11005KT 13/10 A302 RMK A01 T01310095  RH  079%=      5-min Rain = 0
KCO2 220507Z 11005KT 13/09 A302 RMK A01 T01300094  RH  079%=      5-min Rain = 0
KCO2 220508Z 11005KT 13/09 A302 RMK A01 T01300094  RH  079%=      5-min Rain = 0
KCO2 220509Z 11005KT 13/10 A302 RMK A01 T01300095  RH  079%=      5-min Rain = 0
KCO2 220510Z 11005KT 13/10 A302 RMK A01 T01300095  RH  079%=      5-min Rain = 0
KCO2 220511Z 11004KT 13/09 A302 RMK A01 T01300094  RH  079%=      5-min Rain = 0
KCO2 220512Z 11005KT 13/10 A302 RMK A01 T01300095  RH  079%=      5-min Rain = 0
KCO2 220513Z 11005KT 13/10 A302 RMK A01 T01310095  RH  079%=      5-min Rain = 0
KCO2 220514Z 12005KT 13/10 A302 RMK A01 T01300095  RH  079%=      5-min Rain = 0
KCO2 220515Z 12005KT 13/10 A302 RMK A01 T01310095  RH  079%=      5-min Rain = 0
KCO2 220516Z 12005KT 13/10 A302 RMK A01 T01320095  RH  078%=      5-min Rain = 0
KCO2 220517Z 12005KT 13/10 A302 RMK A01 T01320095  RH  078%=      5-min Rain = 0
KCO2 220518Z 11005KT 13/10 A302 RMK A01 T01320095  RH  078%=      5-min Rain = 0
KCO2 220519Z 11005KT 13/10 A302 RMK A01 T01320095  RH  078%=      5-min Rain = 0
KCO2 220520Z 11005KT 13/10 A302 RMK A01 T01320095  RH  078%=      5-min Rain = 0
KCO2 220521Z 11005KT 13/10 A302 RMK A01 T01320095  RH  078%=      5-min Rain = 0
KCO2 220522Z 10005KT 13/10 A302 RMK A01 T01320095  RH  078%=      5-min Rain = 0
KCO2 220523Z 10005KT 13/10 A302 RMK A01 T01330095  RH  078%=      5-min Rain = 0
KCO2 220524Z 10005KT 13/10 A302 RMK A01 T01330095  RH  078%=      5-min Rain = 0
KCO2 220525Z 10005KT 13/10 A302 RMK A01 T01330095  RH  078%=      5-min Rain = 0
KCO2 220526Z 10005KT 13/10 A302 RMK A01 T01330095  RH  078%=      5-min Rain = 0
KCO2 220527Z 10005KT 13/10 A302 RMK A01 T01330095  RH  078%=      5-min Rain = 0
KCO2 220528Z 10005KT 13/10 A302 RMK A01 T01340096  RH  078%=      5-min Rain = 0
KCO2 220529Z 10005KT 13/10 A302 RMK A01 T01330095  RH  078%=      5-min Rain = 0
KCO2 220530Z 10005KT 13/10 A302 RMK A01 T01340096  RH  078%=      5-min Rain = 0
KCO2 220531Z 10005KT 13/10 A302 RMK A01 T01340096  RH  078%=      5-min Rain = 0
KCO2 220532Z 10005KT 13/10 A302 RMK A01 T01340096  RH  077%=      5-min Rain = 0
KCO2 220533Z 09005KT 13/10 A302 RMK A01 T01340095  RH  077%=      5-min Rain = 0
KCO2 220534Z 09005KT 13/10 A302 RMK A01 T01340095  RH  077%=      5-min Rain = 0
KCO2 220535Z 09005KT 13/10 A302 RMK A01 T01340096  RH  077%=      5-min Rain = 0
KCO2 220536Z 09005KT 13/10 A302 RMK A01 T01340096  RH  078%=      5-min Rain = 0
KCO2 220537Z 08005KT 13/10 A302 RMK A01 T01340096  RH  078%=      5-min Rain = 0
KCO2 220538Z 09005KT 13/10 A302 RMK A01 T01340096  RH  078%=      5-min Rain = 0
KCO2 220539Z 08005KT 13/10 A3019 RMK A01 T01340095  RH  078%=      5-min Rain = 0
KCO2 220540Z 08005KT 13/10 A3019 RMK A01 T01340096  RH  078%=      5-min Rain = 0
KCO2 220541Z 08005KT 13/10 A3019 RMK A01 T01340095  RH  077%=      5-min Rain = 0
KCO2 220542Z 08006KT 13/10 A3019 RMK A01 T01340095  RH  077%=      5-min Rain = 0
KCO2 220543Z 08006KT 13/10 A3019 RMK A01 T01340095  RH  077%=      5-min Rain = 0
KCO2 220544Z 08006KT 13/10 A3019 RMK A01 T01340095  RH  077%=      5-min Rain = 0
KCO2 220545Z 08006KT 13/10 A3019 RMK A01 T01340095  RH  077%=      5-min Rain = 0
KCO2 220546Z 08006KT 13/10 A3019 RMK A01 T01330095  RH  078%=      5-min Rain = 0
KCO2 220547Z 09006KT 13/10 A3019 RMK A01 T01320095  RH  078%=      5-min Rain = 0
KCO2 220548Z 09006KT 13/10 A3019 RMK A01 T01320095  RH  078%=      5-min Rain = 0
KCO2 220549Z 09006KT 13/09 A3019 RMK A01 T01310094  RH  078%=      5-min Rain = 0
KCO2 220550Z 09006KT 13/10 A3019 RMK A01 T01310095  RH  079%=      5-min Rain = 0
KCO2 220551Z 09006KT 13/10 A3019 RMK A01 T01310095  RH  079%=      5-min Rain = 0
KCO2 220552Z 09006KT 13/10 A3019 RMK A01 T01300095  RH  079%=      5-min Rain = 0
KCO2 220553Z 09005KT 13/10 A3019 RMK A01 T01300095  RH  079%=      5-min Rain = 0
KCO2 220554Z 09006KT 13/09 A3019 RMK A01 T01290094  RH  079%=      5-min Rain = 0
KCO2 220555Z 09006KT 13/10 A3019 RMK A01 T01290095  RH  079%=      5-min Rain = 0
KCO2 220556Z 09006KT 13/10 A3019 RMK A01 T01290095  RH  079%=      5-min Rain = 0
KCO2 220557Z 09006KT 13/10 A3019 RMK A01 T01290095  RH  079%=      5-min Rain = 0
KCO2 220558Z 09006KT 13/10 A3019 RMK A01 T01290095  RH  079%=      5-min Rain = 0
KCO2 220559Z 09006KT 13/09 A3019 RMK A01 T01290094  RH  079%=      5-min Rain = 0

Page generated in 0.0698 seconds.